Time,TemperatureF,DewpointF,PressureIn,WindDirection,WindDirectionDegrees,WindSpeedMPH,WindSpeedGustMPH,Humidity,HourlyPrecipIn,Conditions,Clouds,dailyrainin,SoftwareType,DateUTC
2013-02-13 00:00:00,38.9,30.0,30.06,NNE,28,10.0,11.0,70,0.00,,SKC,0.02,VWS V14.01,2013-02-13 06:00:00,
2013-02-13 00:01:00,38.9,30.0,30.06,WNW,292,4.0,10.0,70,0.00,,SKC,0.00,VWS V14.01,2013-02-13 06:01:00,
2013-02-13 00:02:00,38.9,30.0,30.06,NNW,344,7.0,7.0,70,0.00,,SKC,0.00,VWS V14.01,2013-02-13 06:02:00,
2013-02-13 00:03:00,38.8,29.9,30.06,NW,322,5.0,9.0,70,0.00,,SKC,0.00,VWS V14.01,2013-02-13 06:03:00,
2013-02-13 00:04:00,38.8,29.9,30.06,West,279,7.0,9.0,70,0.00,,SKC,0.00,VWS V14.01,2013-02-13 06:04:00,
2013-02-13 00:05:00,38.8,29.9,30.06,NW,316,7.0,9.0,70,0.00,,SKC,0.00,VWS V14.01,2013-02-13 06:05:00,
2013-02-13 00:06:00,38.8,29.9,30.07,North,355,6.0,7.0,70,0.00,,SKC,0.00,VWS V14.01,2013-02-13 06:06:00,
2013-02-13 00:07:00,38.7,29.8,30.07,North,355,5.0,7.0,70,0.00,,SKC,0.00,VWS V14.01,2013-02-13 06:07:00,
2013-02-13 00:08:00,38.7,29.8,30.07,North,355,7.0,11.0,70,0.00,,SKC,0.00,VWS V14.01,2013-02-13 06:08:00,
2013-02-13 00:09:00,38.7,29.8,30.07,NNW,345,3.0,7.0,70,0.00,,SKC,0.00,VWS V14.01,2013-02-13 06:09:00,
2013-02-13 00:10:00,38.7,29.8,30.07,WNW,302,4.0,7.0,70,0.00,,SKC,0.00,VWS V14.01,2013-02-13 06:10:00,
2013-02-13 00:11:00,38.6,29.7,30.07,North,350,9.0,10.0,70,0.00,,SKC,0.00,VWS V14.01,2013-02-13 06:11:00,
2013-02-13 00:12:00,38.6,30.0,30.06,NW,324,3.0,12.0,71,0.00,,SKC,0.00,VWS V14.01,2013-02-13 06:12:00,
2013-02-13 00:13:00,38.6,30.0,30.06,NNW,328,9.0,11.0,71,0.00,,SKC,0.00,VWS V14.01,2013-02-13 06:13:00,
2013-02-13 00:14:00,38.5,29.9,30.06,NNW,340,8.0,9.0,71,0.00,,SKC,0.00,VWS V14.01,2013-02-13 06:14:00,
2013-02-13 00:15:00,38.5,29.9,30.06,NNW,346,8.0,9.0,71,0.00,,SKC,0.00,VWS V14.01,2013-02-13 06:15:00,
2013-02-13 00:16:00,38.5,29.9,30.06,North,349,6.0,9.0,71,0.00,,SKC,0.00,VWS V14.01,2013-02-13 06:16:00,
2013-02-13 00:17:00,38.4,29.8,30.06,NNW,338,2.0,12.0,71,0.00,,SKC,0.00,VWS V14.01,2013-02-13 06:17:00,
2013-02-13 00:18:00,38.4,29.8,30.06,NNW,348,9.0,11.0,71,0.00,,SKC,0.00,VWS V14.01,2013-02-13 06:18:00,
2013-02-13 00:19:00,38.4,29.8,30.06,NNW,329,2.0,12.0,71,0.00,,SKC,0.00,VWS V14.01,2013-02-13 06:19:00,
2013-02-13 00:20:00,38.4,29.8,30.06,NNW,329,4.0,12.0,71,0.00,,SKC,0.00,VWS V14.01,2013-02-13 06:20:00,
2013-02-13 00:21:00,38.3,29.7,30.06,NNW,342,5.0,11.0,71,0.00,,SKC,0.00,VWS V14.01,2013-02-13 06:21:00,
2013-02-13 00:22:00,38.3,29.7,30.06,NNW,327,7.0,10.0,71,0.00,,SKC,0.00,VWS V14.01,2013-02-13 06:22:00,
2013-02-13 00:23:00,38.2,29.6,30.06,North,355,4.0,10.0,71,0.00,,SKC,0.00,VWS V14.01,2013-02-13 06:23:00,
2013-02-13 00:24:00,38.2,29.6,30.06,NNW,346,7.0,7.0,71,0.00,,SKC,0.00,VWS V14.01,2013-02-13 06:24:00,
2013-02-13 00:25:00,38.2,29.6,30.06,NNW,340,3.0,5.0,71,0.00,,SKC,0.00,VWS V14.01,2013-02-13 06:25:00,
2013-02-13 00:26:00,38.1,29.5,30.06,NNW,346,4.0,11.0,71,0.00,,SKC,0.00,VWS V14.01,2013-02-13 06:26:00,
2013-02-13 00:27:00,38.1,29.9,30.06,North,351,9.0,12.0,72,0.00,,SKC,0.00,VWS V14.01,2013-02-13 06:27:00,
2013-02-13 00:28:00,38.0,29.8,30.06,NW,312,5.0,12.0,72,0.00,,SKC,0.00,VWS V14.01,2013-02-13 06:28:00,
2013-02-13 00:29:00,38.0,29.8,30.06,NW,326,11.0,11.0,72,0.00,,SKC,0.00,VWS V14.01,2013-02-13 06:29:00,
2013-02-13 00:30:00,38.0,29.8,30.06,North,360,9.0,9.0,72,0.00,,SKC,0.00,VWS V14.01,2013-02-13 06:30:00,
2013-02-13 00:31:00,37.9,29.7,30.06,NNW,336,4.0,6.0,72,0.00,,SKC,0.00,VWS V14.01,2013-02-13 06:31:00,
2013-02-13 00:32:00,37.9,29.7,30.06,NNW,344,7.0,7.0,72,0.00,,SKC,0.00,VWS V14.01,2013-02-13 06:32:00,
2013-02-13 00:33:00,37.9,29.7,30.06,NW,324,3.0,10.0,72,0.00,,SKC,0.00,VWS V14.01,2013-02-13 06:33:00,
2013-02-13 00:34:00,37.9,29.7,30.06,WNW,302,11.0,11.0,72,0.00,,SKC,0.00,VWS V14.01,2013-02-13 06:34:00,
2013-02-13 00:35:00,37.9,29.7,30.06,North,360,11.0,11.0,72,0.00,,SKC,0.00,VWS V14.01,2013-02-13 06:35:00,
2013-02-13 00:36:00,37.8,29.6,30.06,NNW,341,9.0,13.0,72,0.00,,SKC,0.00,VWS V14.01,2013-02-13 06:36:00,
2013-02-13 00:37:00,37.8,29.6,30.06,NW,307,10.0,10.0,72,0.00,,SKC,0.00,VWS V14.01,2013-02-13 06:37:00,
2013-02-13 00:38:00,37.8,29.6,30.06,NW,311,5.0,14.0,72,0.00,,SKC,0.00,VWS V14.01,2013-02-13 06:38:00,
2013-02-13 00:39:00,37.8,29.6,30.07,North,350,2.0,8.0,72,0.00,,SKC,0.00,VWS V14.01,2013-02-13 06:39:00,
2013-02-13 00:40:00,37.8,29.6,30.07,North,355,2.0,8.0,72,0.00,,SKC,0.00,VWS V14.01,2013-02-13 06:40:00,
2013-02-13 00:41:00,37.8,29.6,30.07,NNW,331,3.0,13.0,72,0.00,,SKC,0.00,VWS V14.01,2013-02-13 06:41:00,
2013-02-13 00:42:00,37.7,29.5,30.07,NNW,327,3.0,9.0,72,0.00,,SKC,0.00,VWS V14.01,2013-02-13 06:42:00,
2013-02-13 00:43:00,37.7,29.5,30.07,NNW,347,6.0,12.0,72,0.00,,SKC,0.00,VWS V14.01,2013-02-13 06:43:00,
2013-02-13 00:44:00,37.7,29.5,30.07,NW,321,5.0,7.0,72,0.00,,SKC,0.00,VWS V14.01,2013-02-13 06:44:00,
2013-02-13 00:45:00,37.7,29.5,30.07,NNW,327,2.0,7.0,72,0.00,,SKC,0.00,VWS V14.01,2013-02-13 06:45:00,
2013-02-13 00:46:00,37.6,29.7,30.07,NW,309,6.0,11.0,73,0.00,,SKC,0.00,VWS V14.01,2013-02-13 06:46:00,
2013-02-13 00:47:00,37.6,29.7,30.07,NNW,331,5.0,7.0,73,0.00,,SKC,0.00,VWS V14.01,2013-02-13 06:47:00,
2013-02-13 00:48:00,37.5,29.6,30.07,WNW,300,6.0,6.0,73,0.00,,SKC,0.00,VWS V14.01,2013-02-13 06:48:00,
2013-02-13 00:49:00,37.5,29.6,30.07,North,355,3.0,10.0,73,0.00,,SKC,0.00,VWS V14.01,2013-02-13 06:49:00,
2013-02-13 00:50:00,37.5,29.6,30.07,North,355,4.0,10.0,73,0.00,,SKC,0.00,VWS V14.01,2013-02-13 06:50:00,
2013-02-13 00:51:00,37.5,29.6,30.07,North,355,6.0,6.0,73,0.00,,SKC,0.00,VWS V14.01,2013-02-13 06:51:00,
2013-02-13 00:52:00,37.4,29.5,30.07,NW,326,6.0,9.0,73,0.00,,SKC,0.00,VWS V14.01,2013-02-13 06:52:00,
2013-02-13 00:53:00,37.4,29.5,30.06,NNW,333,3.0,12.0,73,0.00,,SKC,0.00,VWS V14.01,2013-02-13 06:53:00,
2013-02-13 00:54:00,37.3,29.5,30.07,NNW,328,4.0,7.0,73,0.00,,SKC,0.00,VWS V14.01,2013-02-13 06:54:00,
2013-02-13 00:55:00,37.3,29.5,30.07,NNW,330,5.0,7.0,73,0.00,,SKC,0.00,VWS V14.01,2013-02-13 06:55:00,
2013-02-13 00:56:00,37.3,29.5,30.07,NW,321,4.0,6.0,73,0.00,,SKC,0.00,VWS V14.01,2013-02-13 06:56:00,
2013-02-13 00:57:00,37.2,29.4,30.07,NNW,338,3.0,7.0,73,0.00,,SKC,0.00,VWS V14.01,2013-02-13 06:57:00,
2013-02-13 00:58:00,37.2,29.4,30.07,NNW,329,5.0,5.0,73,0.00,,SKC,0.00,VWS V14.01,2013-02-13 06:58:00,
2013-02-13 00:59:00,37.2,29.4,30.07,North,355,3.0,7.0,73,0.00,,SKC,0.00,VWS V14.01,2013-02-13 06:59:00,
2013-02-13 01:00:00,37.2,29.4,30.07,North,360,5.0,6.0,73,0.00,,SKC,0.00,VWS V14.01,2013-02-13 07:00:00,
2013-02-13 01:01:00,37.1,29.6,30.07,NNW,337,0.0,5.0,74,0.00,,SKC,0.00,VWS V14.01,2013-02-13 07:01:00,
2013-02-13 01:02:00,37.1,29.6,30.07,NNW,327,3.0,5.0,74,0.00,,SKC,0.00,VWS V14.01,2013-02-13 07:02:00,
2013-02-13 01:03:00,37.0,29.5,30.08,NNW,334,6.0,6.0,74,0.00,,SKC,0.00,VWS V14.01,2013-02-13 07:03:00,
2013-02-13 01:04:00,37.0,29.5,30.08,NNW,337,4.0,7.0,74,0.00,,SKC,0.00,VWS V14.01,2013-02-13 07:04:00,
2013-02-13 01:05:00,37.0,29.5,30.08,NNW,340,5.0,7.0,74,0.00,,SKC,0.00,VWS V14.01,2013-02-13 07:05:00,
2013-02-13 01:06:00,37.0,29.5,30.08,NW,319,3.0,10.0,74,0.00,,SKC,0.00,VWS V14.01,2013-02-13 07:06:00,
2013-02-13 01:07:00,36.9,29.4,30.08,NW,321,3.0,12.0,74,0.00,,SKC,0.00,VWS V14.01,2013-02-13 07:07:00,
2013-02-13 01:08:00,36.9,29.4,30.08,NNW,331,5.0,6.0,74,0.00,,SKC,0.00,VWS V14.01,2013-02-13 07:08:00,
2013-02-13 01:09:00,36.9,29.4,30.08,NNW,343,10.0,10.0,74,0.00,,SKC,0.00,VWS V14.01,2013-02-13 07:09:00,
2013-02-13 01:10:00,36.9,29.4,30.08,NW,316,4.0,7.0,74,0.00,,SKC,0.00,VWS V14.01,2013-02-13 07:10:00,
2013-02-13 01:11:00,36.9,29.4,30.07,NW,310,2.0,7.0,74,0.00,,SKC,0.00,VWS V14.01,2013-02-13 07:11:00,
2013-02-13 01:12:00,36.9,29.4,30.07,North,5,6.0,6.0,74,0.00,,SKC,0.00,VWS V14.01,2013-02-13 07:12:00,
2013-02-13 01:13:00,36.8,29.3,30.07,NNW,348,4.0,7.0,74,0.00,,SKC,0.00,VWS V14.01,2013-02-13 07:13:00,
2013-02-13 01:14:00,36.8,29.3,30.07,NNW,344,1.0,6.0,74,0.00,,SKC,0.00,VWS V14.01,2013-02-13 07:14:00,
2013-02-13 01:15:00,36.8,29.3,30.07,NNW,346,3.0,6.0,74,0.00,,SKC,0.00,VWS V14.01,2013-02-13 07:15:00,
2013-02-13 01:16:00,36.7,29.2,30.07,WNW,302,3.0,3.0,74,0.00,,SKC,0.00,VWS V14.01,2013-02-13 07:16:00,
2013-02-13 01:17:00,36.7,29.2,30.07,NNW,344,2.0,4.0,74,0.00,,SKC,0.00,VWS V14.01,2013-02-13 07:17:00,
2013-02-13 01:18:00,36.6,29.4,30.07,NNW,333,9.0,10.0,75,0.00,,SKC,0.00,VWS V14.01,2013-02-13 07:18:00,
2013-02-13 01:19:00,36.6,29.4,30.07,NW,310,9.0,10.0,75,0.00,,SKC,0.00,VWS V14.01,2013-02-13 07:19:00,
2013-02-13 01:20:00,36.6,29.4,30.07,NW,319,2.0,10.0,75,0.00,,SKC,0.00,VWS V14.01,2013-02-13 07:20:00,
2013-02-13 01:21:00,36.5,29.3,30.07,NNW,333,1.0,6.0,75,0.00,,SKC,0.00,VWS V14.01,2013-02-13 07:21:00,
2013-02-13 01:22:00,36.5,29.3,30.06,NNW,333,6.0,7.0,75,0.00,,SKC,0.00,VWS V14.01,2013-02-13 07:22:00,
2013-02-13 01:23:00,36.4,29.2,30.06,NW,311,5.0,9.0,75,0.00,,SKC,0.00,VWS V14.01,2013-02-13 07:23:00,
2013-02-13 01:24:00,36.4,29.2,30.07,NW,314,7.0,9.0,75,0.00,,SKC,0.00,VWS V14.01,2013-02-13 07:24:00,
2013-02-13 01:25:00,36.4,29.2,30.07,North,350,7.0,9.0,75,0.00,,SKC,0.00,VWS V14.01,2013-02-13 07:25:00,
2013-02-13 01:26:00,36.3,29.1,30.06,NW,325,3.0,10.0,75,0.00,,SKC,0.00,VWS V14.01,2013-02-13 07:26:00,
2013-02-13 01:27:00,36.4,29.2,30.07,NW,314,6.0,6.0,75,0.00,,SKC,0.00,VWS V14.01,2013-02-13 07:27:00,
2013-02-13 01:28:00,36.3,29.1,30.07,North,11,3.0,7.0,75,0.00,,SKC,0.00,VWS V14.01,2013-02-13 07:28:00,
2013-02-13 01:29:00,36.3,29.1,30.07,North,355,4.0,6.0,75,0.00,,SKC,0.00,VWS V14.01,2013-02-13 07:29:00,
2013-02-13 01:30:00,36.3,29.1,30.07,NNW,344,4.0,5.0,75,0.00,,SKC,0.00,VWS V14.01,2013-02-13 07:30:00,
2013-02-13 01:31:00,36.2,29.0,30.06,NW,322,5.0,9.0,75,0.00,,SKC,0.00,VWS V14.01,2013-02-13 07:31:00,
2013-02-13 01:32:00,36.2,29.0,30.06,NNW,344,7.0,8.0,75,0.00,,SKC,0.00,VWS V14.01,2013-02-13 07:32:00,
2013-02-13 01:33:00,36.2,29.0,30.06,NNW,330,4.0,7.0,75,0.00,,SKC,0.00,VWS V14.01,2013-02-13 07:33:00,
2013-02-13 01:34:00,36.2,29.4,30.06,NW,314,4.0,10.0,76,0.00,,SKC,0.00,VWS V14.01,2013-02-13 07:34:00,
2013-02-13 01:35:00,36.2,29.4,30.06,NNE,13,2.0,10.0,76,0.00,,SKC,0.00,VWS V14.01,2013-02-13 07:35:00,
2013-02-13 01:36:00,36.1,29.3,30.06,NNW,347,2.0,6.0,76,0.00,,SKC,0.00,VWS V14.01,2013-02-13 07:36:00,
2013-02-13 01:37:00,36.1,29.3,30.06,NNW,329,3.0,7.0,76,0.00,,SKC,0.00,VWS V14.01,2013-02-13 07:37:00,
2013-02-13 01:38:00,36.0,29.2,30.06,WNW,303,5.0,6.0,76,0.00,,SKC,0.00,VWS V14.01,2013-02-13 07:38:00,
2013-02-13 01:39:00,36.0,29.2,30.06,NNW,346,4.0,6.0,76,0.00,,SKC,0.00,VWS V14.01,2013-02-13 07:39:00,
2013-02-13 01:40:00,36.0,29.2,30.06,NNW,337,6.0,6.0,76,0.00,,SKC,0.00,VWS V14.01,2013-02-13 07:40:00,
2013-02-13 01:41:00,35.9,29.1,30.06,NNW,348,4.0,5.0,76,0.00,,SKC,0.00,VWS V14.01,2013-02-13 07:41:00,
2013-02-13 01:42:00,35.9,29.1,30.06,NW,316,5.0,7.0,76,0.00,,SKC,0.00,VWS V14.01,2013-02-13 07:42:00,
2013-02-13 01:43:00,35.9,29.1,30.06,NNW,344,3.0,7.0,76,0.00,,SKC,0.00,VWS V14.01,2013-02-13 07:43:00,
2013-02-13 01:44:00,35.8,29.0,30.07,NNW,341,0.0,3.0,76,0.00,,SKC,0.00,VWS V14.01,2013-02-13 07:44:00,
2013-02-13 01:45:00,35.8,29.0,30.06,NNW,341,0.0,3.0,76,0.00,,SKC,0.00,VWS V14.01,2013-02-13 07:45:00,
2013-02-13 01:46:00,35.7,28.9,30.07,NW,319,1.0,4.0,76,0.00,,SKC,0.00,VWS V14.01,2013-02-13 07:46:00,
2013-02-13 01:47:00,35.6,28.8,30.07,NW,321,0.0,4.0,76,0.00,,SKC,0.00,VWS V14.01,2013-02-13 07:47:00,
2013-02-13 01:48:00,35.6,28.8,30.07,NNW,342,1.0,4.0,76,0.00,,SKC,0.00,VWS V14.01,2013-02-13 07:48:00,
2013-02-13 01:49:00,35.6,28.8,30.07,NW,316,1.0,4.0,76,0.00,,SKC,0.00,VWS V14.01,2013-02-13 07:49:00,
2013-02-13 01:50:00,35.6,28.8,30.07,NW,316,2.0,4.0,76,0.00,,SKC,0.00,VWS V14.01,2013-02-13 07:50:00,
2013-02-13 01:51:00,35.5,29.0,30.08,NW,317,2.0,3.0,77,0.00,,SKC,0.00,VWS V14.01,2013-02-13 07:51:00,
2013-02-13 01:52:00,35.5,29.0,30.08,NW,317,1.0,3.0,77,0.00,,SKC,0.00,VWS V14.01,2013-02-13 07:52:00,
2013-02-13 01:53:00,35.4,28.9,30.08,NW,317,0.0,1.0,77,0.00,,SKC,0.00,VWS V14.01,2013-02-13 07:53:00,
2013-02-13 01:54:00,35.3,28.8,30.08,NW,317,1.0,2.0,77,0.00,,SKC,0.00,VWS V14.01,2013-02-13 07:54:00,
2013-02-13 01:55:00,35.3,28.8,30.08,NW,317,0.0,2.0,77,0.00,,SKC,0.00,VWS V14.01,2013-02-13 07:55:00,
2013-02-13 01:56:00,35.2,28.7,30.08,NW,318,0.0,1.0,77,0.00,,SKC,0.00,VWS V14.01,2013-02-13 07:56:00,
2013-02-13 01:57:00,35.2,28.7,30.08,NNW,329,1.0,6.0,77,0.00,,SKC,0.00,VWS V14.01,2013-02-13 07:57:00,
2013-02-13 01:58:00,35.2,28.7,30.08,NW,311,3.0,3.0,77,0.00,,SKC,0.00,VWS V14.01,2013-02-13 07:58:00,
2013-02-13 01:59:00,35.1,28.6,30.08,NW,325,1.0,3.0,77,0.00,,SKC,0.00,VWS V14.01,2013-02-13 07:59:00,
2013-02-13 02:00:00,35.1,28.6,30.08,NW,325,1.0,3.0,77,0.00,,SKC,0.00,VWS V14.01,2013-02-13 08:00:00,
2013-02-13 02:01:00,35.1,28.6,30.09,NW,319,0.0,4.0,77,0.00,,SKC,0.00,VWS V14.01,2013-02-13 08:01:00,
2013-02-13 02:02:00,35.1,28.9,30.09,NW,321,3.0,4.0,78,0.00,,SKC,0.00,VWS V14.01,2013-02-13 08:02:00,
2013-02-13 02:03:00,35.1,28.9,30.09,NW,321,3.0,3.0,78,0.00,,SKC,0.00,VWS V14.01,2013-02-13 08:03:00,
2013-02-13 02:04:00,35.1,28.9,30.09,NNW,333,0.0,3.0,78,0.00,,SKC,0.00,VWS V14.01,2013-02-13 08:04:00,
2013-02-13 02:05:00,35.1,28.9,30.09,NNW,333,0.0,3.0,78,0.00,,SKC,0.00,VWS V14.01,2013-02-13 08:05:00,
2013-02-13 02:06:00,35.1,28.9,30.09,NNW,331,1.0,5.0,78,0.00,,SKC,0.00,VWS V14.01,2013-02-13 08:06:00,
2013-02-13 02:07:00,35.1,28.9,30.09,NNW,327,1.0,3.0,78,0.00,,SKC,0.00,VWS V14.01,2013-02-13 08:07:00,
2013-02-13 02:08:00,35.1,28.9,30.09,NW,325,3.0,3.0,78,0.00,,SKC,0.00,VWS V14.01,2013-02-13 08:08:00,
2013-02-13 02:09:00,35.1,28.9,30.09,NNW,327,1.0,3.0,78,0.00,,SKC,0.00,VWS V14.01,2013-02-13 08:09:00,
2013-02-13 02:10:00,35.1,28.9,30.09,NNW,327,1.0,3.0,78,0.00,,SKC,0.00,VWS V14.01,2013-02-13 08:10:00,
2013-02-13 02:11:00,35.0,28.9,30.09,NW,326,2.0,3.0,78,0.00,,SKC,0.00,VWS V14.01,2013-02-13 08:11:00,
2013-02-13 02:12:00,35.0,28.9,30.09,NW,326,0.0,3.0,78,0.00,,SKC,0.00,VWS V14.01,2013-02-13 08:12:00,
2013-02-13 02:13:00,35.0,28.9,30.09,NNW,327,0.0,2.0,78,0.00,,SKC,0.00,VWS V14.01,2013-02-13 08:13:00,
2013-02-13 02:14:00,34.9,28.8,30.09,NW,326,0.0,0.0,78,0.00,,SKC,0.00,VWS V14.01,2013-02-13 08:14:00,
2013-02-13 02:15:00,34.9,28.8,30.09,NW,326,0.0,0.0,78,0.00,,SKC,0.00,VWS V14.01,2013-02-13 08:15:00,
2013-02-13 02:16:00,34.8,28.6,30.10,NNW,327,0.0,0.0,78,0.00,,SKC,0.00,VWS V14.01,2013-02-13 08:16:00,
2013-02-13 02:17:00,34.8,28.6,30.10,NW,326,0.0,1.0,78,0.00,,SKC,0.00,VWS V14.01,2013-02-13 08:17:00,
2013-02-13 02:18:00,34.7,28.6,30.10,NW,326,0.0,0.0,78,0.00,,SKC,0.00,VWS V14.01,2013-02-13 08:18:00,
2013-02-13 02:19:00,34.6,28.5,30.10,NW,326,0.0,0.0,78,0.00,,SKC,0.00,VWS V14.01,2013-02-13 08:19:00,
2013-02-13 02:20:00,34.6,28.5,30.10,NW,326,0.0,0.0,78,0.00,,SKC,0.00,VWS V14.01,2013-02-13 08:20:00,
2013-02-13 02:21:00,34.4,28.3,30.10,NW,326,0.0,0.0,78,0.00,,SKC,0.00,VWS V14.01,2013-02-13 08:21:00,
2013-02-13 02:22:00,34.4,28.3,30.10,NNW,327,0.0,0.0,78,0.00,,SKC,0.00,VWS V14.01,2013-02-13 08:22:00,
2013-02-13 02:23:00,34.4,28.3,30.10,NNW,327,0.0,0.0,78,0.00,,SKC,0.00,VWS V14.01,2013-02-13 08:23:00,
2013-02-13 02:24:00,34.4,28.3,30.09,NW,326,0.0,0.0,78,0.00,,SKC,0.00,VWS V14.01,2013-02-13 08:24:00,
2013-02-13 02:25:00,34.4,28.3,30.09,NW,326,0.0,0.0,78,0.00,,SKC,0.00,VWS V14.01,2013-02-13 08:25:00,
2013-02-13 02:26:00,34.3,28.2,30.09,NW,326,0.0,1.0,78,0.00,,SKC,0.00,VWS V14.01,2013-02-13 08:26:00,
2013-02-13 02:27:00,34.3,28.2,30.10,NW,326,1.0,1.0,78,0.00,,SKC,0.00,VWS V14.01,2013-02-13 08:27:00,
2013-02-13 02:28:00,34.2,28.1,30.10,NNW,327,1.0,2.0,78,0.00,,SKC,0.00,VWS V14.01,2013-02-13 08:28:00,
2013-02-13 02:29:00,34.1,28.3,30.09,NNW,327,0.0,1.0,79,0.00,,SKC,0.00,VWS V14.01,2013-02-13 08:29:00,
2013-02-13 02:30:00,34.1,28.3,30.09,NNW,327,0.0,1.0,79,0.00,,SKC,0.00,VWS V14.01,2013-02-13 08:30:00,
2013-02-13 02:31:00,34.0,28.2,30.09,NNW,327,0.0,1.0,79,0.00,,SKC,0.00,VWS V14.01,2013-02-13 08:31:00,
2013-02-13 02:32:00,34.0,28.2,30.09,NW,326,0.0,1.0,79,0.00,,SKC,0.00,VWS V14.01,2013-02-13 08:32:00,
2013-02-13 02:33:00,33.9,28.1,30.09,NW,326,0.0,1.0,79,0.00,,SKC,0.00,VWS V14.01,2013-02-13 08:33:00,
2013-02-13 02:34:00,33.9,28.1,30.09,NNW,327,1.0,1.0,79,0.00,,SKC,0.00,VWS V14.01,2013-02-13 08:34:00,
2013-02-13 02:35:00,33.9,28.1,30.09,NNW,327,1.0,1.0,79,0.00,,SKC,0.00,VWS V14.01,2013-02-13 08:35:00,
2013-02-13 02:36:00,33.9,28.1,30.10,NNW,327,0.0,0.0,79,0.00,,SKC,0.00,VWS V14.01,2013-02-13 08:36:00,
2013-02-13 02:37:00,33.8,28.0,30.09,NNW,327,0.0,1.0,79,0.00,,SKC,0.00,VWS V14.01,2013-02-13 08:37:00,
2013-02-13 02:38:00,33.8,28.0,30.09,NNW,327,0.0,1.0,79,0.00,,SKC,0.00,VWS V14.01,2013-02-13 08:38:00,
2013-02-13 02:39:00,33.8,28.3,30.10,NW,326,0.0,1.0,80,0.00,,SKC,0.00,VWS V14.01,2013-02-13 08:39:00,
2013-02-13 02:40:00,33.8,28.3,30.10,NW,326,0.0,1.0,80,0.00,,SKC,0.00,VWS V14.01,2013-02-13 08:40:00,
2013-02-13 02:41:00,33.7,28.2,30.10,NNW,327,0.0,0.0,80,0.00,,SKC,0.00,VWS V14.01,2013-02-13 08:41:00,
2013-02-13 02:42:00,33.7,28.2,30.10,NNW,327,0.0,1.0,80,0.00,,SKC,0.00,VWS V14.01,2013-02-13 08:42:00,
2013-02-13 02:43:00,33.6,28.1,30.10,NNW,327,2.0,3.0,80,0.00,,SKC,0.00,VWS V14.01,2013-02-13 08:43:00,
2013-02-13 02:44:00,33.6,28.1,30.10,NNW,327,0.0,2.0,80,0.00,,SKC,0.00,VWS V14.01,2013-02-13 08:44:00,
2013-02-13 02:45:00,33.6,28.1,30.10,NNW,327,0.0,2.0,80,0.00,,SKC,0.00,VWS V14.01,2013-02-13 08:45:00,
2013-02-13 02:46:00,33.6,28.1,30.09,NW,326,0.0,1.0,80,0.00,,SKC,0.00,VWS V14.01,2013-02-13 08:46:00,
2013-02-13 02:47:00,33.5,28.0,30.09,NNW,327,2.0,4.0,80,0.00,,SKC,0.00,VWS V14.01,2013-02-13 08:47:00,
2013-02-13 02:48:00,33.5,28.0,30.10,NNW,327,1.0,2.0,80,0.00,,SKC,0.00,VWS V14.01,2013-02-13 08:48:00,
2013-02-13 02:49:00,33.5,28.0,30.10,NNW,327,0.0,2.0,80,0.00,,SKC,0.00,VWS V14.01,2013-02-13 08:49:00,
2013-02-13 02:50:00,33.5,28.0,30.10,NNW,327,0.0,2.0,80,0.00,,SKC,0.00,VWS V14.01,2013-02-13 08:50:00,
2013-02-13 02:51:00,33.5,28.3,30.10,NNW,327,0.0,1.0,81,0.00,,SKC,0.00,VWS V14.01,2013-02-13 08:51:00,
2013-02-13 02:52:00,33.5,28.3,30.10,NNW,327,0.0,1.0,81,0.00,,SKC,0.00,VWS V14.01,2013-02-13 08:52:00,
2013-02-13 02:53:00,33.5,28.3,30.10,NW,326,0.0,0.0,81,0.00,,SKC,0.00,VWS V14.01,2013-02-13 08:53:00,
2013-02-13 02:54:00,33.5,28.3,30.10,NNW,327,0.0,0.0,81,0.00,,SKC,0.00,VWS V14.01,2013-02-13 08:54:00,
2013-02-13 02:55:00,33.5,28.3,30.10,NNW,327,0.0,0.0,81,0.00,,SKC,0.00,VWS V14.01,2013-02-13 08:55:00,
2013-02-13 02:56:00,33.4,27.9,30.10,NNW,327,0.0,0.0,80,0.00,,SKC,0.00,VWS V14.01,2013-02-13 08:56:00,
2013-02-13 02:57:00,33.4,28.2,30.09,NNW,327,0.0,1.0,81,0.00,,SKC,0.00,VWS V14.01,2013-02-13 08:57:00,
2013-02-13 02:58:00,33.4,28.2,30.09,NNW,327,0.0,0.0,81,0.00,,SKC,0.00,VWS V14.01,2013-02-13 08:58:00,
2013-02-13 02:59:00,33.3,28.1,30.09,NW,326,0.0,0.0,81,0.00,,SKC,0.00,VWS V14.01,2013-02-13 08:59:00,
2013-02-13 03:00:00,33.3,28.1,30.09,NW,326,0.0,0.0,81,0.00,,SKC,0.00,VWS V14.01,2013-02-13 09:00:00,
2013-02-13 03:01:00,33.2,28.0,30.09,NW,326,0.0,0.0,81,0.00,,SKC,0.00,VWS V14.01,2013-02-13 09:01:00,
2013-02-13 03:02:00,33.2,28.0,30.09,NW,326,1.0,2.0,81,0.00,,SKC,0.00,VWS V14.01,2013-02-13 09:02:00,
2013-02-13 03:03:00,33.1,27.9,30.09,NNW,327,2.0,2.0,81,0.00,,SKC,0.00,VWS V14.01,2013-02-13 09:03:00,
2013-02-13 03:04:00,33.1,27.9,30.09,NNW,327,0.0,2.0,81,0.00,,SKC,0.00,VWS V14.01,2013-02-13 09:04:00,
2013-02-13 03:05:00,33.1,27.9,30.09,NNW,327,0.0,2.0,81,0.00,,SKC,0.00,VWS V14.01,2013-02-13 09:05:00,
2013-02-13 03:06:00,33.0,27.8,30.09,NW,326,3.0,4.0,81,0.00,,SKC,0.00,VWS V14.01,2013-02-13 09:06:00,
2013-02-13 03:07:00,32.9,27.7,30.09,NW,326,3.0,3.0,81,0.00,,SKC,0.00,VWS V14.01,2013-02-13 09:07:00,
2013-02-13 03:08:00,32.9,27.7,30.09,NW,326,2.0,4.0,81,0.00,,SKC,0.00,VWS V14.01,2013-02-13 09:08:00,
2013-02-13 03:09:00,32.9,27.7,30.09,NNW,327,1.0,3.0,81,0.00,,SKC,0.00,VWS V14.01,2013-02-13 09:09:00,
2013-02-13 03:10:00,32.9,27.7,30.09,NNW,327,1.0,3.0,81,0.00,,SKC,0.00,VWS V14.01,2013-02-13 09:10:00,
2013-02-13 03:11:00,32.8,27.9,30.09,NNW,327,2.0,3.0,82,0.00,,SKC,0.00,VWS V14.01,2013-02-13 09:11:00,
2013-02-13 03:12:00,32.9,28.0,30.09,NNW,327,0.0,5.0,82,0.00,,SKC,0.00,VWS V14.01,2013-02-13 09:12:00,
2013-02-13 03:13:00,32.9,28.0,30.09,NW,326,1.0,1.0,82,0.00,,SKC,0.00,VWS V14.01,2013-02-13 09:13:00,
2013-02-13 03:14:00,32.9,28.0,30.09,NW,326,1.0,2.0,82,0.00,,SKC,0.00,VWS V14.01,2013-02-13 09:14:00,
2013-02-13 03:15:00,32.9,28.0,30.09,NW,326,1.0,2.0,82,0.00,,SKC,0.00,VWS V14.01,2013-02-13 09:15:00,
2013-02-13 03:16:00,32.8,27.9,30.09,NNW,327,1.0,4.0,82,0.00,,SKC,0.00,VWS V14.01,2013-02-13 09:16:00,
2013-02-13 03:17:00,32.8,27.9,30.09,NNW,327,3.0,3.0,82,0.00,,SKC,0.00,VWS V14.01,2013-02-13 09:17:00,
2013-02-13 03:18:00,32.8,27.9,30.09,NNW,327,1.0,3.0,82,0.00,,SKC,0.00,VWS V14.01,2013-02-13 09:18:00,
2013-02-13 03:19:00,32.8,27.9,30.08,NNW,327,0.0,3.0,82,0.00,,SKC,0.00,VWS V14.01,2013-02-13 09:19:00,
2013-02-13 03:20:00,32.8,27.9,30.08,NNW,327,0.0,3.0,82,0.00,,SKC,0.00,VWS V14.01,2013-02-13 09:20:00,
2013-02-13 03:21:00,32.8,27.9,30.08,NW,326,2.0,3.0,82,0.00,,SKC,0.00,VWS V14.01,2013-02-13 09:21:00,
2013-02-13 03:22:00,32.8,27.9,30.09,NNW,327,3.0,4.0,82,0.00,,SKC,0.00,VWS V14.01,2013-02-13 09:22:00,
2013-02-13 03:23:00,32.8,27.9,30.09,NNW,327,4.0,4.0,82,0.00,,SKC,0.00,VWS V14.01,2013-02-13 09:23:00,
2013-02-13 03:24:00,32.8,27.9,30.09,NNW,327,1.0,4.0,82,0.00,,SKC,0.00,VWS V14.01,2013-02-13 09:24:00,
2013-02-13 03:25:00,32.8,27.9,30.09,NNW,327,1.0,4.0,82,0.00,,SKC,0.00,VWS V14.01,2013-02-13 09:25:00,
2013-02-13 03:26:00,32.8,27.9,30.09,NNW,327,1.0,2.0,82,0.00,,SKC,0.00,VWS V14.01,2013-02-13 09:26:00,
2013-02-13 03:27:00,32.8,27.9,30.09,NNW,338,1.0,2.0,82,0.00,,SKC,0.00,VWS V14.01,2013-02-13 09:27:00,
2013-02-13 03:28:00,32.8,27.9,30.09,NNW,338,2.0,4.0,82,0.00,,SKC,0.00,VWS V14.01,2013-02-13 09:28:00,
2013-02-13 03:29:00,32.8,27.9,30.09,NNW,338,1.0,2.0,82,0.00,,SKC,0.00,VWS V14.01,2013-02-13 09:29:00,
2013-02-13 03:30:00,32.8,27.9,30.08,NW,315,0.0,1.0,82,0.00,,SKC,0.00,VWS V14.01,2013-02-13 09:30:00,
2013-02-13 03:31:00,32.7,27.8,30.08,NW,315,1.0,4.0,82,0.00,,SKC,0.00,VWS V14.01,2013-02-13 09:31:00,
2013-02-13 03:32:00,32.7,27.8,30.08,NNW,338,1.0,3.0,82,0.00,,SKC,0.00,VWS V14.01,2013-02-13 09:32:00,
2013-02-13 03:33:00,32.7,27.8,30.08,NNW,338,1.0,4.0,82,0.00,,SKC,0.00,VWS V14.01,2013-02-13 09:33:00,
2013-02-13 03:34:00,32.6,27.7,30.09,NNW,338,2.0,3.0,82,0.00,,SKC,0.00,VWS V14.01,2013-02-13 09:34:00,
2013-02-13 03:35:00,32.6,27.7,30.09,NNW,338,3.0,5.0,82,0.00,,SKC,0.00,VWS V14.01,2013-02-13 09:35:00,
2013-02-13 03:36:00,32.6,27.7,30.09,NNW,338,2.0,4.0,82,0.00,,SKC,0.00,VWS V14.01,2013-02-13 09:36:00,
2013-02-13 03:37:00,32.6,27.7,30.09,NNW,338,3.0,7.0,82,0.00,,SKC,0.00,VWS V14.01,2013-02-13 09:37:00,
2013-02-13 03:38:00,32.6,27.7,30.09,NNW,338,2.0,4.0,82,0.00,,SKC,0.00,VWS V14.01,2013-02-13 09:38:00,
2013-02-13 03:39:00,32.6,27.7,30.09,NW,315,2.0,4.0,82,0.00,,SKC,0.00,VWS V14.01,2013-02-13 09:39:00,
2013-02-13 03:40:00,32.6,28.0,30.09,NW,315,2.0,5.0,83,0.00,,SKC,0.00,VWS V14.01,2013-02-13 09:40:00,
2013-02-13 03:41:00,32.6,28.0,30.09,NW,315,3.0,7.0,83,0.00,,SKC,0.00,VWS V14.01,2013-02-13 09:41:00,
2013-02-13 03:42:00,32.7,28.1,30.09,NW,315,1.0,2.0,83,0.00,,SKC,0.00,VWS V14.01,2013-02-13 09:42:00,
2013-02-13 03:43:00,32.7,28.1,30.09,NNW,338,2.0,3.0,83,0.00,,SKC,0.00,VWS V14.01,2013-02-13 09:43:00,
2013-02-13 03:44:00,32.7,28.1,30.09,NNW,338,1.0,3.0,83,0.00,,SKC,0.00,VWS V14.01,2013-02-13 09:44:00,
2013-02-13 03:45:00,32.7,28.1,30.09,NW,315,2.0,5.0,83,0.00,,SKC,0.00,VWS V14.01,2013-02-13 09:45:00,
2013-02-13 03:46:00,32.8,28.2,30.09,NW,315,1.0,3.0,83,0.00,,SKC,0.00,VWS V14.01,2013-02-13 09:46:00,
2013-02-13 03:47:00,32.8,28.2,30.09,NNW,338,2.0,5.0,83,0.00,,SKC,0.00,VWS V14.01,2013-02-13 09:47:00,
2013-02-13 03:48:00,32.8,28.2,30.09,NNW,338,4.0,7.0,83,0.00,,SKC,0.00,VWS V14.01,2013-02-13 09:48:00,
2013-02-13 03:49:00,32.8,28.2,30.09,NNW,338,3.0,5.0,83,0.00,,SKC,0.00,VWS V14.01,2013-02-13 09:49:00,
2013-02-13 03:50:00,32.8,28.2,30.09,NNW,338,3.0,6.0,83,0.00,,SKC,0.00,VWS V14.01,2013-02-13 09:50:00,
2013-02-13 03:51:00,32.8,28.2,30.09,NNW,338,3.0,6.0,83,0.00,,SKC,0.00,VWS V14.01,2013-02-13 09:51:00,
2013-02-13 03:52:00,32.9,28.3,30.08,NNW,338,4.0,7.0,83,0.00,,SKC,0.00,VWS V14.01,2013-02-13 09:52:00,
2013-02-13 03:53:00,32.9,28.3,30.08,NNW,338,3.0,7.0,83,0.00,,SKC,0.00,VWS V14.01,2013-02-13 09:53:00,
2013-02-13 03:54:00,32.9,28.3,30.08,NNW,338,3.0,7.0,83,0.00,,SKC,0.00,VWS V14.01,2013-02-13 09:54:00,
2013-02-13 03:55:00,32.9,28.3,30.08,North,0,5.0,9.0,83,0.00,,SKC,0.00,VWS V14.01,2013-02-13 09:55:00,
2013-02-13 03:56:00,32.9,28.3,30.08,NNW,338,3.0,7.0,83,0.00,,SKC,0.00,VWS V14.01,2013-02-13 09:56:00,
2013-02-13 03:57:00,32.9,28.3,30.08,North,0,4.0,8.0,83,0.00,,SKC,0.00,VWS V14.01,2013-02-13 09:57:00,
2013-02-13 03:58:00,33.0,28.4,30.08,NNW,338,6.0,10.0,83,0.00,,SKC,0.00,VWS V14.01,2013-02-13 09:58:00,
2013-02-13 03:59:00,33.0,28.4,30.08,NNW,338,4.0,10.0,83,0.00,,SKC,0.00,VWS V14.01,2013-02-13 09:59:00,
2013-02-13 04:00:00,33.0,28.4,30.07,NNW,338,3.0,6.0,83,0.00,,SKC,0.00,VWS V14.01,2013-02-13 10:00:00,
2013-02-13 04:01:00,33.0,28.4,30.07,NW,315,5.0,9.0,83,0.00,,SKC,0.00,VWS V14.01,2013-02-13 10:01:00,
2013-02-13 04:02:00,33.0,28.4,30.07,NW,315,4.0,7.0,83,0.00,,SKC,0.00,VWS V14.01,2013-02-13 10:02:00,
2013-02-13 04:03:00,33.1,28.5,30.07,NNW,338,6.0,10.0,83,0.00,,SKC,0.00,VWS V14.01,2013-02-13 10:03:00,
2013-02-13 04:04:00,33.1,28.5,30.07,NNW,338,5.0,9.0,83,0.00,,SKC,0.00,VWS V14.01,2013-02-13 10:04:00,
2013-02-13 04:05:00,33.1,28.5,30.07,NNW,338,6.0,11.0,83,0.00,,SKC,0.00,VWS V14.01,2013-02-13 10:05:00,
2013-02-13 04:06:00,33.2,28.6,30.07,NW,315,2.0,5.0,83,0.00,,SKC,0.00,VWS V14.01,2013-02-13 10:06:00,
2013-02-13 04:07:00,33.2,28.6,30.07,North,0,4.0,6.0,83,0.00,,SKC,0.00,VWS V14.01,2013-02-13 10:07:00,
2013-02-13 04:08:00,33.2,28.6,30.08,NNW,338,4.0,6.0,83,0.00,,SKC,0.00,VWS V14.01,2013-02-13 10:08:00,
2013-02-13 04:09:00,33.2,28.6,30.08,NNW,338,3.0,7.0,83,0.00,,SKC,0.00,VWS V14.01,2013-02-13 10:09:00,
2013-02-13 04:10:00,33.2,28.6,30.08,NW,315,3.0,7.0,83,0.00,,SKC,0.00,VWS V14.01,2013-02-13 10:10:00,
2013-02-13 04:11:00,33.2,28.6,30.08,NW,315,2.0,5.0,83,0.00,,SKC,0.00,VWS V14.01,2013-02-13 10:11:00,
2013-02-13 04:12:00,33.3,28.7,30.08,NNW,338,4.0,6.0,83,0.00,,SKC,0.00,VWS V14.01,2013-02-13 10:12:00,
2013-02-13 04:13:00,33.3,28.7,30.08,NW,315,4.0,7.0,83,0.00,,SKC,0.00,VWS V14.01,2013-02-13 10:13:00,
2013-02-13 04:14:00,33.3,28.7,30.08,NW,315,4.0,6.0,83,0.00,,SKC,0.00,VWS V14.01,2013-02-13 10:14:00,
2013-02-13 04:15:00,33.3,28.4,30.08,NW,315,4.0,7.0,82,0.00,,SKC,0.00,VWS V14.01,2013-02-13 10:15:00,
2013-02-13 04:16:00,33.3,28.4,30.08,NNW,338,1.0,5.0,82,0.00,,SKC,0.00,VWS V14.01,2013-02-13 10:16:00,
2013-02-13 04:17:00,33.3,28.4,30.08,NNW,338,4.0,6.0,82,0.00,,SKC,0.00,VWS V14.01,2013-02-13 10:17:00,
2013-02-13 04:18:00,33.3,28.4,30.08,NNW,338,3.0,4.0,82,0.00,,SKC,0.00,VWS V14.01,2013-02-13 10:18:00,
2013-02-13 04:19:00,33.3,28.4,30.08,NNW,338,4.0,6.0,82,0.00,,SKC,0.00,VWS V14.01,2013-02-13 10:19:00,
2013-02-13 04:20:00,33.3,28.4,30.08,NW,315,3.0,6.0,82,0.00,,SKC,0.00,VWS V14.01,2013-02-13 10:20:00,
2013-02-13 04:21:00,33.3,28.4,30.08,NNW,338,3.0,5.0,82,0.00,,SKC,0.00,VWS V14.01,2013-02-13 10:21:00,
2013-02-13 04:22:00,33.3,28.4,30.08,NNW,338,3.0,6.0,82,0.00,,SKC,0.00,VWS V14.01,2013-02-13 10:22:00,
2013-02-13 04:23:00,33.3,28.4,30.08,NW,315,3.0,8.0,82,0.00,,SKC,0.00,VWS V14.01,2013-02-13 10:23:00,
2013-02-13 04:24:00,33.2,28.3,30.08,NNW,338,3.0,5.0,82,0.00,,SKC,0.00,VWS V14.01,2013-02-13 10:24:00,
2013-02-13 04:25:00,33.2,28.3,30.08,NNW,338,3.0,5.0,82,0.00,,SKC,0.00,VWS V14.01,2013-02-13 10:25:00,
2013-02-13 04:26:00,33.2,28.3,30.08,NNW,338,3.0,7.0,82,0.00,,SKC,0.00,VWS V14.01,2013-02-13 10:26:00,
2013-02-13 04:27:00,33.2,28.6,30.08,NNW,338,2.0,5.0,83,0.00,,SKC,0.00,VWS V14.01,2013-02-13 10:27:00,
2013-02-13 04:28:00,33.2,28.3,30.08,NW,315,1.0,6.0,82,0.00,,SKC,0.00,VWS V14.01,2013-02-13 10:28:00,
2013-02-13 04:29:00,33.2,28.6,30.08,NW,315,2.0,5.0,83,0.00,,SKC,0.00,VWS V14.01,2013-02-13 10:29:00,
2013-02-13 04:30:00,33.2,28.6,30.08,NW,315,1.0,5.0,83,0.00,,SKC,0.00,VWS V14.01,2013-02-13 10:30:00,
2013-02-13 04:31:00,33.2,28.6,30.08,NW,315,1.0,2.0,83,0.00,,SKC,0.00,VWS V14.01,2013-02-13 10:31:00,
2013-02-13 04:32:00,33.1,28.5,30.08,NNW,338,2.0,4.0,83,0.00,,SKC,0.00,VWS V14.01,2013-02-13 10:32:00,
2013-02-13 04:33:00,33.1,28.5,30.08,NW,315,2.0,5.0,83,0.00,,SKC,0.00,VWS V14.01,2013-02-13 10:33:00,
2013-02-13 04:34:00,33.1,28.5,30.08,NW,315,2.0,4.0,83,0.00,,SKC,0.00,VWS V14.01,2013-02-13 10:34:00,
2013-02-13 04:35:00,33.0,28.4,30.08,NW,315,0.0,2.0,83,0.00,,SKC,0.00,VWS V14.01,2013-02-13 10:35:00,
2013-02-13 04:36:00,33.0,28.4,30.08,NNW,338,0.0,1.0,83,0.00,,SKC,0.00,VWS V14.01,2013-02-13 10:36:00,
2013-02-13 04:37:00,33.0,28.1,30.08,NNW,338,1.0,3.0,82,0.00,,SKC,0.00,VWS V14.01,2013-02-13 10:37:00,
2013-02-13 04:38:00,33.0,28.4,30.08,NW,315,4.0,7.0,83,0.00,,SKC,0.00,VWS V14.01,2013-02-13 10:38:00,
2013-02-13 04:39:00,33.0,28.4,30.08,NNW,338,2.0,4.0,83,0.00,,SKC,0.00,VWS V14.01,2013-02-13 10:39:00,
2013-02-13 04:40:00,33.0,28.4,30.08,NNW,338,2.0,4.0,83,0.00,,SKC,0.00,VWS V14.01,2013-02-13 10:40:00,
2013-02-13 04:41:00,33.0,28.4,30.08,NNW,338,2.0,4.0,83,0.00,,SKC,0.00,VWS V14.01,2013-02-13 10:41:00,
2013-02-13 04:42:00,33.0,28.4,30.08,NW,315,2.0,4.0,83,0.00,,SKC,0.00,VWS V14.01,2013-02-13 10:42:00,
2013-02-13 04:43:00,33.0,28.4,30.08,NW,315,1.0,3.0,83,0.00,,SKC,0.00,VWS V14.01,2013-02-13 10:43:00,
2013-02-13 04:44:00,33.0,28.4,30.08,NNW,338,2.0,4.0,83,0.00,,SKC,0.00,VWS V14.01,2013-02-13 10:44:00,
2013-02-13 04:45:00,32.9,28.3,30.08,NNW,338,3.0,6.0,83,0.00,,SKC,0.00,VWS V14.01,2013-02-13 10:45:00,
2013-02-13 04:46:00,32.9,28.3,30.08,NNW,338,2.0,5.0,83,0.00,,SKC,0.00,VWS V14.01,2013-02-13 10:46:00,
2013-02-13 04:47:00,32.9,28.3,30.08,NNW,338,3.0,5.0,83,0.00,,SKC,0.00,VWS V14.01,2013-02-13 10:47:00,
2013-02-13 04:48:00,32.9,28.3,30.08,NNW,338,2.0,4.0,83,0.00,,SKC,0.00,VWS V14.01,2013-02-13 10:48:00,
2013-02-13 04:49:00,32.9,28.3,30.08,NW,315,2.0,3.0,83,0.00,,SKC,0.00,VWS V14.01,2013-02-13 10:49:00,
2013-02-13 04:50:00,32.9,28.3,30.08,NNW,338,2.0,4.0,83,0.00,,SKC,0.00,VWS V14.01,2013-02-13 10:50:00,
2013-02-13 04:51:00,32.9,28.3,30.08,NNW,338,2.0,6.0,83,0.00,,SKC,0.00,VWS V14.01,2013-02-13 10:51:00,
2013-02-13 04:52:00,32.9,28.3,30.08,NNW,338,2.0,5.0,83,0.00,,SKC,0.00,VWS V14.01,2013-02-13 10:52:00,
2013-02-13 04:53:00,32.9,28.3,30.08,NNW,338,2.0,5.0,83,0.00,,SKC,0.00,VWS V14.01,2013-02-13 10:53:00,
2013-02-13 04:54:00,32.8,28.2,30.08,NNW,338,3.0,5.0,83,0.00,,SKC,0.00,VWS V14.01,2013-02-13 10:54:00,
2013-02-13 04:55:00,32.8,28.2,30.08,NNW,338,2.0,4.0,83,0.00,,SKC,0.00,VWS V14.01,2013-02-13 10:55:00,
2013-02-13 04:56:00,32.8,28.2,30.08,NNW,338,2.0,4.0,83,0.00,,SKC,0.00,VWS V14.01,2013-02-13 10:56:00,
2013-02-13 04:57:00,32.8,28.2,30.08,NW,315,1.0,3.0,83,0.00,,SKC,0.00,VWS V14.01,2013-02-13 10:57:00,
2013-02-13 04:58:00,32.8,28.2,30.08,NNW,338,3.0,6.0,83,0.00,,SKC,0.00,VWS V14.01,2013-02-13 10:58:00,
2013-02-13 04:59:00,32.8,28.2,30.08,NNW,338,3.0,5.0,83,0.00,,SKC,0.00,VWS V14.01,2013-02-13 10:59:00,
2013-02-13 05:00:00,32.8,28.2,30.08,NNW,338,2.0,4.0,83,0.00,,SKC,0.00,VWS V14.01,2013-02-13 11:00:00,
2013-02-13 05:01:00,32.8,28.2,30.08,NNW,338,2.0,3.0,83,0.00,,SKC,0.00,VWS V14.01,2013-02-13 11:01:00,
2013-02-13 05:02:00,32.8,28.2,30.08,North,0,1.0,4.0,83,0.00,,SKC,0.00,VWS V14.01,2013-02-13 11:02:00,
2013-02-13 05:03:00,32.7,28.1,30.08,NNW,338,4.0,6.0,83,0.00,,SKC,0.00,VWS V14.01,2013-02-13 11:03:00,
2013-02-13 05:04:00,32.7,28.1,30.08,NNW,338,2.0,4.0,83,0.00,,SKC,0.00,VWS V14.01,2013-02-13 11:04:00,
2013-02-13 05:05:00,32.7,28.1,30.08,NNW,338,1.0,3.0,83,0.00,,SKC,0.00,VWS V14.01,2013-02-13 11:05:00,
2013-02-13 05:06:00,32.7,28.1,30.08,NNW,338,2.0,3.0,83,0.00,,SKC,0.00,VWS V14.01,2013-02-13 11:06:00,
2013-02-13 05:07:00,32.7,28.1,30.08,NNW,338,2.0,5.0,83,0.00,,SKC,0.00,VWS V14.01,2013-02-13 11:07:00,
2013-02-13 05:08:00,32.6,28.0,30.08,NNW,338,3.0,5.0,83,0.00,,SKC,0.00,VWS V14.01,2013-02-13 11:08:00,
2013-02-13 05:09:00,32.6,28.0,30.08,NNW,338,1.0,3.0,83,0.00,,SKC,0.00,VWS V14.01,2013-02-13 11:09:00,
2013-02-13 05:10:00,32.6,28.0,30.08,NNW,338,1.0,3.0,83,0.00,,SKC,0.00,VWS V14.01,2013-02-13 11:10:00,
2013-02-13 05:11:00,32.6,28.0,30.08,West,270,2.0,4.0,83,0.00,,SKC,0.00,VWS V14.01,2013-02-13 11:11:00,
2013-02-13 05:12:00,32.6,28.0,30.08,NNW,338,3.0,5.0,83,0.00,,SKC,0.00,VWS V14.01,2013-02-13 11:12:00,
2013-02-13 05:13:00,32.6,28.0,30.08,NW,315,1.0,3.0,83,0.00,,SKC,0.00,VWS V14.01,2013-02-13 11:13:00,
2013-02-13 05:14:00,32.6,28.0,30.08,NNW,338,1.0,3.0,83,0.00,,SKC,0.00,VWS V14.01,2013-02-13 11:14:00,
2013-02-13 05:15:00,32.6,28.0,30.08,NNW,338,0.0,1.0,83,0.00,,SKC,0.00,VWS V14.01,2013-02-13 11:15:00,
2013-02-13 05:16:00,32.5,27.9,30.08,NW,315,1.0,5.0,83,0.00,,SKC,0.00,VWS V14.01,2013-02-13 11:16:00,
2013-02-13 05:17:00,32.5,27.9,30.08,NW,315,2.0,5.0,83,0.00,,SKC,0.00,VWS V14.01,2013-02-13 11:17:00,
2013-02-13 05:18:00,32.5,27.9,30.08,NNW,338,1.0,3.0,83,0.00,,SKC,0.00,VWS V14.01,2013-02-13 11:18:00,
2013-02-13 05:19:00,32.5,27.9,30.08,NNW,338,1.0,2.0,83,0.00,,SKC,0.00,VWS V14.01,2013-02-13 11:19:00,
2013-02-13 05:20:00,32.5,27.9,30.09,NNW,338,3.0,7.0,83,0.00,,SKC,0.00,VWS V14.01,2013-02-13 11:20:00,
2013-02-13 05:21:00,32.5,27.9,30.08,NW,315,3.0,6.0,83,0.00,,SKC,0.00,VWS V14.01,2013-02-13 11:21:00,
2013-02-13 05:22:00,32.5,28.2,30.08,NNW,338,4.0,6.0,84,0.00,,SKC,0.00,VWS V14.01,2013-02-13 11:22:00,
2013-02-13 05:23:00,32.5,28.2,30.09,North,0,4.0,9.0,84,0.00,,SKC,0.00,VWS V14.01,2013-02-13 11:23:00,
2013-02-13 05:24:00,32.5,28.2,30.09,North,0,3.0,7.0,84,0.00,,SKC,0.00,VWS V14.01,2013-02-13 11:24:00,
2013-02-13 05:25:00,32.5,28.2,30.09,North,0,2.0,5.0,84,0.00,,SKC,0.00,VWS V14.01,2013-02-13 11:25:00,
2013-02-13 05:26:00,32.5,28.2,30.09,North,0,3.0,6.0,84,0.00,,SKC,0.00,VWS V14.01,2013-02-13 11:26:00,
2013-02-13 05:27:00,32.5,28.2,30.09,NNW,338,3.0,6.0,84,0.00,,SKC,0.00,VWS V14.01,2013-02-13 11:27:00,
2013-02-13 05:28:00,32.5,28.2,30.09,NNW,338,1.0,4.0,84,0.00,,SKC,0.00,VWS V14.01,2013-02-13 11:28:00,
2013-02-13 05:29:00,32.5,28.2,30.09,NNW,338,4.0,8.0,84,0.00,,SKC,0.00,VWS V14.01,2013-02-13 11:29:00,
2013-02-13 05:30:00,32.5,28.2,30.09,NW,315,2.0,5.0,84,0.00,,SKC,0.00,VWS V14.01,2013-02-13 11:30:00,
2013-02-13 05:31:00,32.5,28.2,30.09,NNW,338,4.0,6.0,84,0.00,,SKC,0.00,VWS V14.01,2013-02-13 11:31:00,
2013-02-13 05:32:00,32.5,28.2,30.09,NNW,338,1.0,5.0,84,0.00,,SKC,0.00,VWS V14.01,2013-02-13 11:32:00,
2013-02-13 05:33:00,32.5,28.2,30.09,North,0,4.0,6.0,84,0.00,,SKC,0.00,VWS V14.01,2013-02-13 11:33:00,
2013-02-13 05:34:00,32.5,28.2,30.09,North,0,2.0,4.0,84,0.00,,SKC,0.00,VWS V14.01,2013-02-13 11:34:00,
2013-02-13 05:35:00,32.5,28.2,30.09,NW,315,0.0,1.0,84,0.00,,SKC,0.00,VWS V14.01,2013-02-13 11:35:00,
2013-02-13 05:36:00,32.4,28.1,30.09,NNW,338,3.0,6.0,84,0.00,,SKC,0.00,VWS V14.01,2013-02-13 11:36:00,
2013-02-13 05:37:00,32.4,28.1,30.09,NNW,338,2.0,4.0,84,0.00,,SKC,0.00,VWS V14.01,2013-02-13 11:37:00,
2013-02-13 05:38:00,32.4,28.1,30.09,North,0,3.0,7.0,84,0.00,,SKC,0.00,VWS V14.01,2013-02-13 11:38:00,
2013-02-13 05:39:00,32.4,28.1,30.09,NNW,338,2.0,5.0,84,0.00,,SKC,0.00,VWS V14.01,2013-02-13 11:39:00,
2013-02-13 05:40:00,32.4,28.1,30.09,NNW,338,3.0,5.0,84,0.00,,SKC,0.00,VWS V14.01,2013-02-13 11:40:00,
2013-02-13 05:41:00,32.4,28.1,30.09,NNW,338,1.0,4.0,84,0.00,,SKC,0.00,VWS V14.01,2013-02-13 11:41:00,
2013-02-13 05:42:00,32.4,28.1,30.09,NNW,338,3.0,6.0,84,0.00,,SKC,0.00,VWS V14.01,2013-02-13 11:42:00,
2013-02-13 05:43:00,32.4,28.1,30.09,North,0,3.0,5.0,84,0.00,,SKC,0.00,VWS V14.01,2013-02-13 11:43:00,
2013-02-13 05:53:00,32.3,28.0,30.09,NNW,338,3.0,4.0,84,0.00,,SKC,0.00,VWS V14.01,2013-02-13 11:53:00,
2013-02-13 05:58:00,32.1,27.8,30.09,NNW,344,1.0,5.0,84,0.00,,SKC,0.00,VWS V14.01,2013-02-13 11:58:00,
2013-02-13 06:03:00,32.0,27.7,30.09,NNW,345,2.0,2.0,84,0.00,,SKC,0.00,VWS V14.01,2013-02-13 12:03:00,
2013-02-13 06:08:00,32.0,27.7,30.10,NNW,345,0.0,0.0,84,0.00,,SKC,0.00,VWS V14.01,2013-02-13 12:08:00,
2013-02-13 06:13:00,31.9,27.6,30.10,NNW,345,0.0,3.0,84,0.00,,SKC,0.00,VWS V14.01,2013-02-13 12:13:00,
2013-02-13 06:18:00,31.8,27.5,30.10,NNW,345,0.0,1.0,84,0.00,,SKC,0.00,VWS V14.01,2013-02-13 12:18:00,
2013-02-13 06:23:00,31.7,27.7,30.10,NNW,345,0.0,3.0,85,0.00,,SKC,0.00,VWS V14.01,2013-02-13 12:23:00,
2013-02-13 06:28:00,31.7,27.7,30.10,NNW,345,2.0,2.0,85,0.00,,SKC,0.00,VWS V14.01,2013-02-13 12:28:00,
2013-02-13 06:33:00,31.7,27.7,30.10,NNW,345,0.0,1.0,85,0.00,,SKC,0.00,VWS V14.01,2013-02-13 12:33:00,
2013-02-13 06:38:00,31.7,27.7,30.11,NNW,332,2.0,6.0,85,0.00,,SKC,0.00,VWS V14.01,2013-02-13 12:38:00,
2013-02-13 06:43:00,31.7,27.7,30.11,NNW,338,1.0,3.0,85,0.00,,SKC,0.00,VWS V14.01,2013-02-13 12:43:00,
2013-02-13 06:48:00,31.7,27.7,30.11,NNW,340,2.0,4.0,85,0.00,,SKC,0.00,VWS V14.01,2013-02-13 12:48:00,
2013-02-13 06:53:00,31.6,27.6,30.11,NNW,342,2.0,3.0,85,0.00,,SKC,0.00,VWS V14.01,2013-02-13 12:53:00,
2013-02-13 06:58:00,31.6,27.6,30.11,North,355,4.0,4.0,85,0.00,,SKC,0.00,VWS V14.01,2013-02-13 12:58:00,
2013-02-13 07:03:00,31.6,27.6,30.11,NNW,336,0.0,3.0,85,0.00,,SKC,0.00,VWS V14.01,2013-02-13 13:03:00,
2013-02-13 07:08:00,31.7,27.7,30.11,NNW,339,0.0,2.0,85,0.00,,SKC,0.00,VWS V14.01,2013-02-13 13:08:00,
2013-02-13 07:13:00,31.7,27.7,30.11,WNW,296,0.0,2.0,85,0.00,,SKC,0.00,VWS V14.01,2013-02-13 13:13:00,
2013-02-13 07:18:00,31.7,27.7,30.11,NNW,331,5.0,5.0,85,0.00,,SKC,0.00,VWS V14.01,2013-02-13 13:18:00,
2013-02-13 07:23:00,31.7,27.7,30.12,NNW,342,0.0,2.0,85,0.00,,SKC,0.00,VWS V14.01,2013-02-13 13:23:00,
2013-02-13 07:28:00,31.7,27.7,30.12,NNW,342,0.0,2.0,85,0.00,,SKC,0.00,VWS V14.01,2013-02-13 13:28:00,
2013-02-13 07:33:00,31.6,27.6,30.12,NNW,330,0.0,2.0,85,0.00,,SKC,0.00,VWS V14.01,2013-02-13 13:33:00,
2013-02-13 07:38:00,31.6,27.6,30.12,NNW,330,0.0,0.0,85,0.00,,SKC,0.00,VWS V14.01,2013-02-13 13:38:00,
2013-02-13 07:43:00,31.7,28.0,30.12,NW,325,0.0,0.0,86,0.00,,SKC,0.00,VWS V14.01,2013-02-13 13:43:00,
2013-02-13 07:48:00,31.9,28.2,30.12,NW,325,0.0,0.0,86,0.00,,SKC,0.00,VWS V14.01,2013-02-13 13:48:00,
2013-02-13 07:53:00,32.1,28.4,30.13,NW,325,1.0,1.0,86,0.00,,SKC,0.00,VWS V14.01,2013-02-13 13:53:00,
2013-02-13 07:58:00,32.4,28.7,30.13,NW,325,0.0,0.0,86,0.00,,SKC,0.00,VWS V14.01,2013-02-13 13:58:00,
2013-02-13 08:03:00,32.7,29.0,30.13,NW,325,0.0,0.0,86,0.00,,SKC,0.00,VWS V14.01,2013-02-13 14:03:00,
2013-02-13 08:08:00,33.1,29.4,30.13,NW,325,0.0,1.0,86,0.00,,SKC,0.00,VWS V14.01,2013-02-13 14:08:00,
2013-02-13 08:13:00,33.6,29.6,30.13,NW,325,0.0,1.0,85,0.00,,SKC,0.00,VWS V14.01,2013-02-13 14:13:00,
2013-02-13 08:18:00,34.4,30.6,30.13,NW,325,0.0,2.0,86,0.00,,SKC,0.00,VWS V14.01,2013-02-13 14:18:00,
2013-02-13 08:23:00,34.9,30.9,30.13,NNW,341,3.0,5.0,85,0.00,,SKC,0.00,VWS V14.01,2013-02-13 14:23:00,
2013-02-13 08:28:00,35.3,31.0,30.14,NW,311,1.0,3.0,84,0.00,,SKC,0.00,VWS V14.01,2013-02-13 14:28:00,
2013-02-13 08:33:00,35.8,31.1,30.14,NNW,331,3.0,4.0,83,0.00,,SKC,0.00,VWS V14.01,2013-02-13 14:33:00,
2013-02-13 08:38:00,36.3,31.3,30.14,NNW,329,3.0,4.0,82,0.00,,SKC,0.00,VWS V14.01,2013-02-13 14:38:00,
2013-02-13 08:43:00,36.8,31.2,30.14,NNW,341,3.0,6.0,80,0.00,,SKC,0.00,VWS V14.01,2013-02-13 14:43:00,
2013-02-13 08:48:00,37.3,31.7,30.14,NNW,330,0.0,1.0,80,0.00,,SKC,0.00,VWS V14.01,2013-02-13 14:48:00,
2013-02-13 08:53:00,37.8,31.9,30.14,NNW,340,1.0,2.0,79,0.00,,SKC,0.00,VWS V14.01,2013-02-13 14:53:00,
2013-02-13 08:58:00,38.3,32.0,30.14,NNW,331,0.0,4.0,78,0.00,,SKC,0.00,VWS V14.01,2013-02-13 14:58:00,
2013-02-13 09:03:00,38.8,32.5,30.14,North,10,1.0,4.0,78,0.00,,SKC,0.00,VWS V14.01,2013-02-13 15:03:00,
2013-02-13 09:08:00,39.5,32.9,30.14,North,360,2.0,3.0,77,0.00,,SKC,0.00,VWS V14.01,2013-02-13 15:08:00,
2013-02-13 09:13:00,40.0,32.7,30.15,North,5,5.0,9.0,75,0.00,,SKC,0.00,VWS V14.01,2013-02-13 15:13:00,
2013-02-13 09:18:00,40.4,32.8,30.15,North,349,2.0,6.0,74,0.00,,SKC,0.00,VWS V14.01,2013-02-13 15:18:00,
2013-02-13 09:23:00,40.7,32.7,30.15,NNW,344,8.0,8.0,73,0.00,,SKC,0.00,VWS V14.01,2013-02-13 15:23:00,
2013-02-13 09:28:00,41.0,32.7,30.15,NNW,344,1.0,3.0,72,0.00,,SKC,0.00,VWS V14.01,2013-02-13 15:28:00,
2013-02-13 09:33:00,41.6,33.6,30.15,NNW,333,4.0,4.0,73,0.00,,SKC,0.00,VWS V14.01,2013-02-13 15:33:00,
2013-02-13 09:38:00,42.2,33.5,30.15,North,355,4.0,6.0,71,0.00,,SKC,0.00,VWS V14.01,2013-02-13 15:38:00,
2013-02-13 09:43:00,42.4,33.3,30.15,WNW,298,9.0,9.0,70,0.00,,SKC,0.00,VWS V14.01,2013-02-13 15:43:00,
2013-02-13 09:48:00,42.8,33.3,30.15,WNW,300,3.0,3.0,69,0.00,,SKC,0.00,VWS V14.01,2013-02-13 15:48:00,
2013-02-13 09:53:00,43.3,33.5,30.15,North,349,0.0,5.0,68,0.00,,SKC,0.00,VWS V14.01,2013-02-13 15:53:00,
2013-02-13 09:58:00,44.1,33.5,30.15,NW,313,1.0,4.0,66,0.00,,SKC,0.00,VWS V14.01,2013-02-13 15:58:00,
2013-02-13 10:03:00,44.7,34.0,30.15,NNE,21,6.0,6.0,66,0.00,,SKC,0.00,VWS V14.01,2013-02-13 16:03:00,
2013-02-13 10:08:00,45.1,33.7,30.15,NNW,347,1.0,6.0,64,0.00,,SKC,0.00,VWS V14.01,2013-02-13 16:08:00,
2013-02-13 10:13:00,45.4,33.2,30.15,NNW,342,2.0,8.0,62,0.00,,SKC,0.00,VWS V14.01,2013-02-13 16:13:00,
2013-02-13 10:18:00,45.6,33.3,30.15,NNE,24,5.0,6.0,62,0.00,,SKC,0.00,VWS V14.01,2013-02-13 16:18:00,
2013-02-13 10:23:00,46.2,33.5,30.15,North,9,4.0,7.0,61,0.00,,SKC,0.00,VWS V14.01,2013-02-13 16:23:00,
2013-02-13 10:28:00,46.5,33.0,30.15,North,355,5.0,11.0,59,0.00,,SKC,0.00,VWS V14.01,2013-02-13 16:28:00,
2013-02-13 10:33:00,46.7,34.0,30.15,NNW,340,3.0,3.0,61,0.00,,SKC,0.00,VWS V14.01,2013-02-13 16:33:00,
2013-02-13 10:38:00,47.2,33.2,30.15,NNW,329,2.0,6.0,58,0.00,,SKC,0.00,VWS V14.01,2013-02-13 16:38:00,
2013-02-13 10:43:00,47.6,33.1,30.15,NNE,17,6.0,7.0,57,0.00,,SKC,0.00,VWS V14.01,2013-02-13 16:43:00,
2013-02-13 10:48:00,47.4,33.0,30.15,North,5,7.0,7.0,57,0.00,,SKC,0.00,VWS V14.01,2013-02-13 16:48:00,
2013-02-13 10:53:00,47.7,33.2,30.15,NNW,342,3.0,6.0,57,0.00,,SKC,0.00,VWS V14.01,2013-02-13 16:53:00,
2013-02-13 10:58:00,48.1,32.7,30.15,NNW,348,6.0,7.0,55,0.00,,SKC,0.00,VWS V14.01,2013-02-13 16:58:00,
2013-02-13 11:03:00,48.2,31.9,30.15,NNW,329,4.0,6.0,53,0.00,,SKC,0.00,VWS V14.01,2013-02-13 17:03:00,
2013-02-13 11:08:00,48.6,32.3,30.15,NNE,30,6.0,6.0,53,0.00,,SKC,0.00,VWS V14.01,2013-02-13 17:08:00,
2013-02-13 11:13:00,49.4,32.5,30.15,NNE,14,3.0,4.0,52,0.00,,SKC,0.00,VWS V14.01,2013-02-13 17:13:00,
2013-02-13 11:18:00,49.6,33.2,30.15,North,10,4.0,4.0,53,0.00,,SKC,0.00,VWS V14.01,2013-02-13 17:18:00,
2013-02-13 11:23:00,50.0,33.1,30.14,NNW,335,1.0,2.0,52,0.00,,SKC,0.00,VWS V14.01,2013-02-13 17:23:00,
2013-02-13 11:28:00,50.8,33.3,30.14,NW,326,2.0,4.0,51,0.00,,SKC,0.00,VWS V14.01,2013-02-13 17:28:00,
2013-02-13 11:33:00,51.2,32.7,30.14,North,350,7.0,9.0,49,0.00,,SKC,0.00,VWS V14.01,2013-02-13 17:33:00,
2013-02-13 11:38:00,51.3,32.3,30.14,NW,323,4.0,6.0,48,0.00,,SKC,0.00,VWS V14.01,2013-02-13 17:38:00,
2013-02-13 11:43:00,51.0,31.5,30.14,NNW,340,5.0,6.0,47,0.00,,SKC,0.00,VWS V14.01,2013-02-13 17:43:00,
2013-02-13 11:48:00,51.1,31.6,30.13,NW,317,2.0,5.0,47,0.00,,SKC,0.00,VWS V14.01,2013-02-13 17:48:00,
2013-02-13 11:53:00,51.9,32.8,30.13,NW,309,1.0,2.0,48,0.00,,SKC,0.00,VWS V14.01,2013-02-13 17:53:00,
2013-02-13 11:58:00,52.5,32.3,30.13,WNW,297,3.0,6.0,46,0.00,,SKC,0.00,VWS V14.01,2013-02-13 17:58:00,
2013-02-13 12:03:00,52.3,32.2,30.13,NNW,333,0.0,2.0,46,0.00,,SKC,0.00,VWS V14.01,2013-02-13 18:03:00,
2013-02-13 12:08:00,52.6,31.9,30.13,WNW,298,3.0,5.0,45,0.00,,SKC,0.00,VWS V14.01,2013-02-13 18:08:00,
2013-02-13 12:13:00,52.6,30.8,30.13,WNW,303,4.0,5.0,43,0.00,,SKC,0.00,VWS V14.01,2013-02-13 18:13:00,
2013-02-13 12:19:00,52.4,31.7,30.13,WNW,286,2.0,6.0,45,0.00,,SKC,0.00,VWS V14.01,2013-02-13 18:19:00,
2013-02-13 12:24:00,52.9,32.2,30.12,North,355,2.0,2.0,45,0.00,,SKC,0.00,VWS V14.01,2013-02-13 18:24:00,
2013-02-13 12:29:00,53.5,32.7,30.12,NNW,348,1.0,3.0,45,0.00,,SKC,0.00,VWS V14.01,2013-02-13 18:29:00,
2013-02-13 12:34:00,54.0,32.6,30.12,NNW,333,1.0,4.0,44,0.00,,SKC,0.00,VWS V14.01,2013-02-13 18:34:00,
2013-02-13 12:39:00,53.8,32.4,30.11,West,266,2.0,3.0,44,0.00,,SKC,0.00,VWS V14.01,2013-02-13 18:39:00,
2013-02-13 12:44:00,53.9,32.5,30.11,NNE,22,6.0,7.0,44,0.00,,SKC,0.00,VWS V14.01,2013-02-13 18:44:00,
2013-02-13 12:49:00,54.6,32.0,30.11,WNW,299,3.0,7.0,42,0.00,,SKC,0.00,VWS V14.01,2013-02-13 18:49:00,
2013-02-13 12:54:00,54.8,31.6,30.10,SE,132,2.0,4.0,41,0.00,,SKC,0.00,VWS V14.01,2013-02-13 18:54:00,
2013-02-13 12:59:00,55.0,31.1,30.10,WNW,290,4.0,7.0,40,0.00,,SKC,0.00,VWS V14.01,2013-02-13 18:59:00,
2013-02-13 13:04:00,55.2,30.7,30.10,WNW,286,3.0,7.0,39,0.00,,SKC,0.00,VWS V14.01,2013-02-13 19:04:00,
2013-02-13 13:09:00,55.3,31.4,30.10,NW,321,2.0,5.0,40,0.00,,SKC,0.00,VWS V14.01,2013-02-13 19:09:00,
2013-02-13 13:14:00,55.5,29.0,30.10,WSW,242,6.0,10.0,36,0.00,,SKC,0.00,VWS V14.01,2013-02-13 19:14:00,
2013-02-13 13:19:00,55.4,29.6,30.10,NNW,344,6.0,7.0,37,0.00,,SKC,0.00,VWS V14.01,2013-02-13 19:19:00,
2013-02-13 13:24:00,55.4,30.2,30.09,NNW,334,3.0,6.0,38,0.00,,SKC,0.00,VWS V14.01,2013-02-13 19:24:00,
2013-02-13 13:29:00,55.8,29.9,30.09,NNW,330,2.0,5.0,37,0.00,,SKC,0.00,VWS V14.01,2013-02-13 19:29:00,
2013-02-13 13:34:00,56.6,30.0,30.08,North,5,6.0,6.0,36,0.00,,SKC,0.00,VWS V14.01,2013-02-13 19:34:00,
2013-02-13 13:39:00,56.7,30.1,30.08,NW,307,3.0,6.0,36,0.00,,SKC,0.00,VWS V14.01,2013-02-13 19:39:00,
2013-02-13 13:44:00,56.9,30.2,30.08,WNW,298,5.0,9.0,36,0.00,,SKC,0.00,VWS V14.01,2013-02-13 19:44:00,
2013-02-13 13:49:00,56.6,29.3,30.08,NNW,345,2.0,10.0,35,0.00,,SKC,0.00,VWS V14.01,2013-02-13 19:49:00,
2013-02-13 13:54:00,56.0,30.1,30.07,West,269,1.0,2.0,37,0.00,,SKC,0.00,VWS V14.01,2013-02-13 19:54:00,
2013-02-13 13:59:00,56.0,29.4,30.07,WNW,288,2.0,6.0,36,0.00,,SKC,0.00,VWS V14.01,2013-02-13 19:59:00,
2013-02-13 14:04:00,56.4,29.1,30.07,WNW,283,5.0,5.0,35,0.00,,SKC,0.00,VWS V14.01,2013-02-13 20:04:00,
2013-02-13 14:09:00,56.6,27.9,30.07,NNW,327,2.0,10.0,33,0.00,,SKC,0.00,VWS V14.01,2013-02-13 20:09:00,
2013-02-13 14:14:00,56.7,28.7,30.06,NNW,329,9.0,12.0,34,0.00,,SKC,0.00,VWS V14.01,2013-02-13 20:14:00,
2013-02-13 14:19:00,56.9,27.4,30.07,West,280,3.0,7.0,32,0.00,,SKC,0.00,VWS V14.01,2013-02-13 20:19:00,
2013-02-13 14:24:00,56.7,27.9,30.06,NNE,28,7.0,10.0,33,0.00,,SKC,0.00,VWS V14.01,2013-02-13 20:24:00,
2013-02-13 14:29:00,56.2,28.2,30.06,ENE,61,2.0,4.0,34,0.00,,SKC,0.00,VWS V14.01,2013-02-13 20:29:00,
2013-02-13 14:34:00,56.6,28.6,30.06,NW,313,6.0,10.0,34,0.00,,SKC,0.00,VWS V14.01,2013-02-13 20:34:00,
2013-02-13 14:39:00,57.4,29.3,30.06,WNW,291,3.0,5.0,34,0.00,,SKC,0.00,VWS V14.01,2013-02-13 20:39:00,
2013-02-13 14:44:00,57.3,28.5,30.06,NW,312,2.0,3.0,33,0.00,,SKC,0.00,VWS V14.01,2013-02-13 20:44:00,
2013-02-13 14:49:00,57.3,29.9,30.05,NW,319,2.0,2.0,35,0.00,,SKC,0.00,VWS V14.01,2013-02-13 20:49:00,
2013-02-13 14:54:00,57.5,29.4,30.05,WNW,287,0.0,3.0,34,0.00,,SKC,0.00,VWS V14.01,2013-02-13 20:54:00,
2013-02-13 14:59:00,57.8,28.2,30.05,NW,322,1.0,12.0,32,0.00,,SKC,0.00,VWS V14.01,2013-02-13 20:59:00,
2013-02-13 15:04:00,57.5,27.9,30.05,NNW,340,6.0,7.0,32,0.00,,SKC,0.00,VWS V14.01,2013-02-13 21:04:00,
2013-02-13 15:09:00,57.3,28.5,30.05,NNW,336,5.0,7.0,33,0.00,,SKC,0.00,VWS V14.01,2013-02-13 21:09:00,
2013-02-13 15:14:00,57.4,27.8,30.05,North,5,0.0,6.0,32,0.00,,SKC,0.00,VWS V14.01,2013-02-13 21:14:00,
2013-02-13 15:19:00,57.7,29.5,30.05,NW,307,1.0,7.0,34,0.00,,SKC,0.00,VWS V14.01,2013-02-13 21:19:00,
2013-02-13 15:24:00,58.0,29.1,30.04,WNW,283,3.0,5.0,33,0.00,,SKC,0.00,VWS V14.01,2013-02-13 21:24:00,
2013-02-13 15:29:00,58.4,28.7,30.04,WSW,257,3.0,5.0,32,0.00,,SKC,0.00,VWS V14.01,2013-02-13 21:29:00,
2013-02-13 15:34:00,58.2,28.5,30.04,West,269,4.0,6.0,32,0.00,,SKC,0.00,VWS V14.01,2013-02-13 21:34:00,
2013-02-13 15:39:00,58.1,27.6,30.04,NE,42,0.0,0.0,31,0.00,,SKC,0.00,VWS V14.01,2013-02-13 21:39:00,
2013-02-13 15:44:00,58.5,28.8,30.04,WNW,283,7.0,10.0,32,0.00,,SKC,0.00,VWS V14.01,2013-02-13 21:44:00,
2013-02-13 15:49:00,58.5,28.0,30.04,WNW,287,4.0,4.0,31,0.00,,SKC,0.00,VWS V14.01,2013-02-13 21:49:00,
2013-02-13 15:54:00,58.5,28.0,30.04,NNW,330,1.0,4.0,31,0.00,,SKC,0.00,VWS V14.01,2013-02-13 21:54:00,
2013-02-13 15:59:00,58.6,28.1,30.04,North,355,3.0,5.0,31,0.00,,SKC,0.00,VWS V14.01,2013-02-13 21:59:00,
2013-02-13 16:04:00,58.5,28.0,30.04,NNW,333,0.0,3.0,31,0.00,,SKC,0.00,VWS V14.01,2013-02-13 22:04:00,
2013-02-13 16:09:00,58.5,27.2,30.04,NW,304,2.0,5.0,30,0.00,,SKC,0.00,VWS V14.01,2013-02-13 22:09:00,
2013-02-13 16:14:00,58.2,26.9,30.04,NE,36,4.0,6.0,30,0.00,,SKC,0.00,VWS V14.01,2013-02-13 22:14:00,
2013-02-13 16:19:00,57.8,26.6,30.04,NE,37,0.0,3.0,30,0.00,,SKC,0.00,VWS V14.01,2013-02-13 22:19:00,
2013-02-13 16:24:00,57.8,26.6,30.04,North,349,0.0,3.0,30,0.00,,SKC,0.00,VWS V14.01,2013-02-13 22:24:00,
2013-02-13 16:29:00,58.0,27.6,30.04,NNE,13,4.0,10.0,31,0.00,,SKC,0.00,VWS V14.01,2013-02-13 22:29:00,
2013-02-13 16:34:00,57.7,26.5,30.04,NW,311,2.0,4.0,30,0.00,,SKC,0.00,VWS V14.01,2013-02-13 22:34:00,
2013-02-13 16:39:00,57.9,25.9,30.04,NNE,13,2.0,2.0,29,0.00,,SKC,0.00,VWS V14.01,2013-02-13 22:39:00,
2013-02-13 16:44:00,58.0,26.0,30.04,NNW,337,1.0,3.0,29,0.00,,SKC,0.00,VWS V14.01,2013-02-13 22:44:00,
2013-02-13 16:49:00,58.2,26.9,30.04,North,10,8.0,10.0,30,0.00,,SKC,0.00,VWS V14.01,2013-02-13 22:49:00,
2013-02-13 16:54:00,57.9,26.7,30.04,North,360,3.0,3.0,30,0.00,,SKC,0.00,VWS V14.01,2013-02-13 22:54:00,
2013-02-13 16:59:00,57.7,26.5,30.04,NE,46,4.0,4.0,30,0.00,,SKC,0.00,VWS V14.01,2013-02-13 22:59:00,
2013-02-13 17:04:00,57.4,27.0,30.04,NNE,16,0.0,2.0,31,0.00,,SKC,0.00,VWS V14.01,2013-02-13 23:04:00,
2013-02-13 17:09:00,57.3,27.0,30.04,NE,49,1.0,4.0,31,0.00,,SKC,0.00,VWS V14.01,2013-02-13 23:09:00,
2013-02-13 17:14:00,57.3,27.7,30.04,NNE,14,0.0,2.0,32,0.00,,SKC,0.00,VWS V14.01,2013-02-13 23:14:00,
2013-02-13 17:19:00,57.6,26.4,30.04,NW,317,3.0,5.0,30,0.00,,SKC,0.00,VWS V14.01,2013-02-13 23:19:00,
2013-02-13 17:24:00,57.5,26.3,30.04,NNW,343,3.0,4.0,30,0.00,,SKC,0.00,VWS V14.01,2013-02-13 23:24:00,
2013-02-13 17:29:00,57.2,26.1,30.04,NW,306,0.0,0.0,30,0.00,,SKC,0.00,VWS V14.01,2013-02-13 23:29:00,
2013-02-13 17:34:00,56.9,25.8,30.04,NE,34,0.0,2.0,30,0.00,,SKC,0.00,VWS V14.01,2013-02-13 23:34:00,
2013-02-13 17:39:00,56.7,25.6,30.04,NNE,13,1.0,3.0,30,0.00,,SKC,0.00,VWS V14.01,2013-02-13 23:39:00,
2013-02-13 17:44:00,56.3,26.8,30.04,North,5,5.0,5.0,32,0.00,,SKC,0.00,VWS V14.01,2013-02-13 23:44:00,
2013-02-13 17:49:00,55.9,27.2,30.04,NNE,28,3.0,5.0,33,0.00,,SKC,0.00,VWS V14.01,2013-02-13 23:49:00,
2013-02-13 17:54:00,55.5,26.1,30.04,NE,42,3.0,4.0,32,0.00,,SKC,0.00,VWS V14.01,2013-02-13 23:54:00,
2013-02-13 17:59:00,55.2,25.9,30.04,NE,36,1.0,2.0,32,0.00,,SKC,0.00,VWS V14.01,2013-02-13 23:59:00,
2013-02-13 18:04:00,54.8,25.5,30.04,NE,36,1.0,2.0,32,0.00,,SKC,0.00,VWS V14.01,2013-02-14 00:04:00,
2013-02-13 18:09:00,54.5,26.0,30.04,NE,36,0.0,0.0,33,0.00,,SKC,0.00,VWS V14.01,2013-02-14 00:09:00,
2013-02-13 18:14:00,54.0,25.6,30.04,NE,36,0.0,0.0,33,0.00,,SKC,0.00,VWS V14.01,2013-02-14 00:14:00,
2013-02-13 18:19:00,53.5,25.8,30.04,NE,36,0.0,1.0,34,0.00,,SKC,0.00,VWS V14.01,2013-02-14 00:19:00,
2013-02-13 18:24:00,53.0,26.1,30.04,NE,36,1.0,1.0,35,0.00,,SKC,0.00,VWS V14.01,2013-02-14 00:24:00,
2013-02-13 18:29:00,52.5,26.3,30.05,NE,36,0.0,0.0,36,0.00,,SKC,0.00,VWS V14.01,2013-02-14 00:29:00,
2013-02-13 18:34:00,51.9,25.8,30.05,NE,36,0.0,1.0,36,0.00,,SKC,0.00,VWS V14.01,2013-02-14 00:34:00,
2013-02-13 18:39:00,51.3,25.9,30.04,NE,36,1.0,1.0,37,0.00,,SKC,0.00,VWS V14.01,2013-02-14 00:39:00,
2013-02-13 18:44:00,50.8,25.5,30.04,NE,36,1.0,2.0,37,0.00,,SKC,0.00,VWS V14.01,2013-02-14 00:44:00,
2013-02-13 18:49:00,50.4,25.1,30.04,NE,36,1.0,1.0,37,0.00,,SKC,0.00,VWS V14.01,2013-02-14 00:49:00,
2013-02-13 18:54:00,50.1,24.9,30.05,NE,36,0.0,1.0,37,0.00,,SKC,0.00,VWS V14.01,2013-02-14 00:54:00,
2013-02-13 18:59:00,50.0,24.8,30.05,NE,36,0.0,0.0,37,0.00,,SKC,0.00,VWS V14.01,2013-02-14 00:59:00,
2013-02-13 19:04:00,49.1,27.0,30.05,NE,36,0.0,0.0,42,0.00,,SKC,0.00,VWS V14.01,2013-02-14 01:04:00,
2013-02-13 19:09:00,48.2,26.2,30.05,NE,36,0.0,0.0,42,0.00,,SKC,0.00,VWS V14.01,2013-02-14 01:09:00,
2013-02-13 19:14:00,47.5,25.6,30.05,NE,36,0.0,0.0,42,0.00,,SKC,0.00,VWS V14.01,2013-02-14 01:14:00,
2013-02-13 19:19:00,46.8,25.5,30.05,NE,36,0.0,0.0,43,0.00,,SKC,0.00,VWS V14.01,2013-02-14 01:19:00,
2013-02-13 19:24:00,46.4,24.6,30.05,NE,36,0.0,0.0,42,0.00,,SKC,0.00,VWS V14.01,2013-02-14 01:24:00,
2013-02-13 19:29:00,46.2,23.8,30.05,NE,36,0.0,0.0,41,0.00,,SKC,0.00,VWS V14.01,2013-02-14 01:29:00,
2013-02-13 19:34:00,46.5,23.5,30.06,NE,36,0.0,0.0,40,0.00,,SKC,0.00,VWS V14.01,2013-02-14 01:34:00,
2013-02-13 19:39:00,46.8,23.8,30.06,NE,36,0.0,0.0,40,0.00,,SKC,0.00,VWS V14.01,2013-02-14 01:39:00,
2013-02-13 19:44:00,46.7,23.7,30.05,NE,36,0.0,0.0,40,0.00,,SKC,0.00,VWS V14.01,2013-02-14 01:44:00,
2013-02-13 19:49:00,46.5,25.2,30.06,NE,36,0.0,0.0,43,0.00,,SKC,0.00,VWS V14.01,2013-02-14 01:49:00,
2013-02-13 19:54:00,45.8,24.6,30.06,NE,36,0.0,0.0,43,0.00,,SKC,0.00,VWS V14.01,2013-02-14 01:54:00,
2013-02-13 19:59:00,45.6,23.9,30.06,NE,36,0.0,0.0,42,0.00,,SKC,0.00,VWS V14.01,2013-02-14 01:59:00,
2013-02-13 20:04:00,45.8,24.6,30.06,NE,36,0.0,1.0,43,0.00,,SKC,0.00,VWS V14.01,2013-02-14 02:04:00,
2013-02-13 20:09:00,45.5,25.4,30.06,NE,36,1.0,2.0,45,0.00,,SKC,0.00,VWS V14.01,2013-02-14 02:09:00,
2013-02-13 20:14:00,44.8,24.8,30.06,NE,36,1.0,1.0,45,0.00,,SKC,0.00,VWS V14.01,2013-02-14 02:14:00,
2013-02-13 20:19:00,44.7,24.1,30.06,NE,36,0.0,0.0,44,0.00,,SKC,0.00,VWS V14.01,2013-02-14 02:19:00,
2013-02-13 20:24:00,45.0,23.9,30.07,NE,36,0.0,0.0,43,0.00,,SKC,0.00,VWS V14.01,2013-02-14 02:24:00,
2013-02-13 20:29:00,45.0,25.0,30.07,NE,36,3.0,3.0,45,0.00,,SKC,0.00,VWS V14.01,2013-02-14 02:29:00,
2013-02-13 20:34:00,44.3,24.8,30.07,NE,36,0.0,1.0,46,0.00,,SKC,0.00,VWS V14.01,2013-02-14 02:34:00,
2013-02-13 20:39:00,44.0,24.6,30.07,NE,36,0.0,0.0,46,0.00,,SKC,0.00,VWS V14.01,2013-02-14 02:39:00,
2013-02-13 20:44:00,43.6,25.2,30.07,NE,36,1.0,1.0,48,0.00,,SKC,0.00,VWS V14.01,2013-02-14 02:44:00,
2013-02-13 20:49:00,43.2,24.4,30.07,NE,36,0.0,0.0,47,0.00,,SKC,0.00,VWS V14.01,2013-02-14 02:49:00,
2013-02-13 20:54:00,43.1,24.8,30.07,NE,36,0.0,1.0,48,0.00,,SKC,0.00,VWS V14.01,2013-02-14 02:54:00,
2013-02-13 20:59:00,42.8,25.0,30.07,NE,36,1.0,1.0,49,0.00,,SKC,0.00,VWS V14.01,2013-02-14 02:59:00,
2013-02-13 21:04:00,42.8,24.5,30.08,NE,36,0.0,2.0,48,0.00,,SKC,0.00,VWS V14.01,2013-02-14 03:04:00,
2013-02-13 21:09:00,42.6,24.3,30.08,NE,36,0.0,0.0,48,0.00,,SKC,0.00,VWS V14.01,2013-02-14 03:09:00,
2013-02-13 21:14:00,42.9,24.1,30.08,NE,36,1.0,2.0,47,0.00,,SKC,0.00,VWS V14.01,2013-02-14 03:14:00,
2013-02-13 21:19:00,43.0,24.2,30.08,NE,36,0.0,1.0,47,0.00,,SKC,0.00,VWS V14.01,2013-02-14 03:19:00,
2013-02-13 21:24:00,42.9,24.6,30.08,NE,36,3.0,3.0,48,0.00,,SKC,0.00,VWS V14.01,2013-02-14 03:24:00,
2013-02-13 21:29:00,42.9,24.1,30.08,NE,36,1.0,1.0,47,0.00,,SKC,0.00,VWS V14.01,2013-02-14 03:29:00,
2013-02-13 21:34:00,43.1,23.7,30.08,NE,36,0.0,0.0,46,0.00,,SKC,0.00,VWS V14.01,2013-02-14 03:34:00,
2013-02-13 21:39:00,42.9,24.1,30.08,NE,36,1.0,2.0,47,0.00,,SKC,0.00,VWS V14.01,2013-02-14 03:39:00,
2013-02-13 21:44:00,42.3,24.5,30.09,NE,36,0.0,0.0,49,0.00,,SKC,0.00,VWS V14.01,2013-02-14 03:44:00,
2013-02-13 21:49:00,42.2,23.9,30.09,NE,36,0.0,0.0,48,0.00,,SKC,0.00,VWS V14.01,2013-02-14 03:49:00,
2013-02-13 21:54:00,42.2,23.9,30.09,NE,36,0.0,0.0,48,0.00,,SKC,0.00,VWS V14.01,2013-02-14 03:54:00,
2013-02-13 21:59:00,42.2,23.9,30.09,NE,36,0.0,0.0,48,0.00,,SKC,0.00,VWS V14.01,2013-02-14 03:59:00,
2013-02-13 22:04:00,42.3,24.0,30.09,NE,36,0.0,0.0,48,0.00,,SKC,0.00,VWS V14.01,2013-02-14 04:04:00,
2013-02-13 22:09:00,42.3,24.0,30.09,NE,36,0.0,0.0,48,0.00,,SKC,0.00,VWS V14.01,2013-02-14 04:09:00,
2013-02-13 22:14:00,42.2,23.9,30.09,NE,36,0.0,0.0,48,0.00,,SKC,0.00,VWS V14.01,2013-02-14 04:14:00,
2013-02-13 22:19:00,41.9,24.6,30.09,NE,36,0.0,1.0,50,0.00,,SKC,0.00,VWS V14.01,2013-02-14 04:19:00,
2013-02-13 22:24:00,41.5,24.3,30.10,NE,36,0.0,0.0,50,0.00,,SKC,0.00,VWS V14.01,2013-02-14 04:24:00,
2013-02-13 22:29:00,41.6,24.8,30.09,NE,36,0.0,0.0,51,0.00,,SKC,0.00,VWS V14.01,2013-02-14 04:29:00,
2013-02-13 22:34:00,41.9,25.1,30.10,NE,36,0.0,0.0,51,0.00,,SKC,0.00,VWS V14.01,2013-02-14 04:34:00,
2013-02-13 22:39:00,41.8,24.5,30.10,NE,36,0.0,0.0,50,0.00,,SKC,0.00,VWS V14.01,2013-02-14 04:39:00,
2013-02-13 22:44:00,41.8,25.0,30.10,NE,36,0.0,0.0,51,0.00,,SKC,0.00,VWS V14.01,2013-02-14 04:44:00,
2013-02-13 22:49:00,41.7,25.4,30.10,NE,36,0.0,0.0,52,0.00,,SKC,0.00,VWS V14.01,2013-02-14 04:49:00,
2013-02-13 22:54:00,41.4,25.1,30.10,NE,36,0.0,0.0,52,0.00,,SKC,0.00,VWS V14.01,2013-02-14 04:54:00,
2013-02-13 22:59:00,40.9,25.1,30.10,NE,36,0.0,0.0,53,0.00,,SKC,0.00,VWS V14.01,2013-02-14 04:59:00,
2013-02-13 23:00:00,40.9,25.1,30.10,NE,36,0.0,0.0,53,0.00,,SKC,0.00,VWS V14.01,2013-02-14 05:00:00,
2013-02-13 23:05:00,40.1,25.2,30.11,NE,36,0.0,0.0,55,0.00,,SKC,0.00,VWS V14.01,2013-02-14 05:05:00,
2013-02-13 23:10:00,39.3,24.9,30.11,NE,36,0.0,0.0,56,0.00,,SKC,0.00,VWS V14.01,2013-02-14 05:10:00,
2013-02-13 23:15:00,38.8,24.9,30.10,NE,36,0.0,0.0,57,0.00,,SKC,0.00,VWS V14.01,2013-02-14 05:15:00,
2013-02-13 23:20:00,38.5,25.0,30.10,NE,36,0.0,0.0,58,0.00,,SKC,0.00,VWS V14.01,2013-02-14 05:20:00,
2013-02-13 23:25:00,38.2,25.1,30.11,NE,36,0.0,0.0,59,0.00,,SKC,0.00,VWS V14.01,2013-02-14 05:25:00,
2013-02-13 23:30:00,38.0,25.0,30.11,NE,36,0.0,0.0,59,0.00,,SKC,0.00,VWS V14.01,2013-02-14 05:30:00,
2013-02-13 23:35:00,38.1,25.1,30.10,NE,36,0.0,0.0,59,0.00,,SKC,0.00,VWS V14.01,2013-02-14 05:35:00,
2013-02-13 23:40:00,38.3,24.8,30.10,NE,36,0.0,0.0,58,0.00,,SKC,0.00,VWS V14.01,2013-02-14 05:40:00,
2013-02-13 23:45:00,38.4,24.9,30.10,NE,36,0.0,0.0,58,0.00,,SKC,0.00,VWS V14.01,2013-02-14 05:45:00,
2013-02-13 23:50:00,38.3,25.2,30.10,NE,36,0.0,0.0,59,0.00,,SKC,0.00,VWS V14.01,2013-02-14 05:50:00,
2013-02-13 23:55:00,38.0,25.0,30.10,NE,36,0.0,0.0,59,0.00,,SKC,0.00,VWS V14.01,2013-02-14 05:55:00,